| time (UTC) | temp C | wind direction | speed KPH | gust KPH | rain 1hr cm | rain 24hr cm | rain mn cm | humidity % | barometer mb |
| 20260906223623 | 32 | 350 | 4.8 | 12.9 | 0.00 | 0.00 | 0.00 | 32 | 1018.3 |
| 20260906223522 | 32 | 16 | 4.8 | 12.9 | 0.00 | 0.00 | 0.00 | 32 | 1018.3 |
| 20260906223502 | 32 | 24 | 4.8 | 12.9 | 0.00 | 0.00 | 0.00 | 32 | 1018.3 |
| 20260906223429 | 32 | 331 | 4.8 | 12.9 | 0.00 | 0.00 | 0.00 | 32 | 1018.3 |
| 20260906223219 | 32 | 333 | 4.8 | 9.7 | 0.00 | 0.00 | 0.00 | 34 | 1018.3 |
| 20260906223126 | 32 | 355 | 4.8 | 9.7 | 0.00 | 0.00 | 0.00 | 33 | 1018.3 |
| 20260906222956 | 32 | 60 | 4.8 | 12.9 | 0.00 | 0.00 | 0.00 | 33 | 1018.4 |
| 20260906222918 | 32 | 41 | 4.8 | 12.9 | 0.00 | 0.00 | 0.00 | 33 | 1018.4 |
| 20260906222817 | 32 | 63 | 4.8 | 12.9 | 0.00 | 0.00 | 0.00 | 33 | 1018.4 |
| 20260906222717 | 32 | 20 | 4.8 | 12.9 | 0.00 | 0.00 | 0.00 | 33 | 1018.4 |
| 20260906222510 | 32 | 47 | 6.4 | 17.7 | 0.00 | 0.00 | 0.00 | 33 | 1018.5 |
| 20260906222450 | 32 | 47 | 6.4 | 20.9 | 0.00 | 0.00 | 0.00 | 33 | 1018.5 |
| 20260906222411 | 32 | 55 | 6.4 | 20.9 | 0.00 | 0.00 | 0.00 | 34 | 1018.4 |
| 20260906222311 | 32 | 335 | 8.0 | 20.9 | 0.00 | 0.00 | 0.00 | 33 | 1018.5 |
| 20260906222105 | 31 | 26 | 8.0 | 20.9 | 0.00 | 0.00 | 0.00 | 33 | 1018.4 |
| 20260906222016 | 31 | 76 | 8.0 | 20.9 | 0.00 | 0.00 | 0.00 | 32 | 1018.5 |
| 20260906222009 | 31 | 160 | 9.7 | 20.9 | 0.00 | 0.00 | 0.00 | 32 | 1018.5 |
| 20260906221804 | 31 | 112 | 9.7 | 20.9 | 0.00 | 0.00 | 0.00 | 32 | 1018.5 |
| 20260906221713 | 32 | 39 | 11.3 | 20.9 | 0.00 | 0.00 | 0.00 | 32 | 1018.6 |
| 20260906221438 | 32 | 15 | 9.7 | 20.9 | 0.00 | 0.00 | 0.00 | 34 | 1018.6 |
| 20260906221359 | 32 | 0 | 8.0 | 20.9 | 0.00 | 0.00 | 0.00 | 33 | 1018.6 |
| 20260906221258 | 32 | 35 | 8.0 | 20.9 | 0.00 | 0.00 | 0.00 | 32 | 1018.6 |
| 20260906221159 | 32 | 44 | 6.4 | 20.9 | 0.00 | 0.00 | 0.00 | 33 | 1018.6 |
| 20260906220952 | 32 | 46 | 6.4 | 16.1 | 0.00 | 0.00 | 0.00 | 33 | 1018.6 |
| 20260906220932 | 32 | 61 | 6.4 | 16.1 | 0.00 | 0.00 | 0.00 | 33 | 1018.6 |
| 20260906220852 | 32 | 34 | 6.4 | 16.1 | 0.00 | 0.00 | 0.00 | 32 | 1018.6 |
| 20260906220752 | 32 | 55 | 6.4 | 16.1 | 0.00 | 0.00 | 0.00 | 34 | 1018.7 |
| 20260906220702 | 32 | 22 | 4.8 | 14.5 | 0.00 | 0.00 | 0.00 | 34 | 1018.6 |
| 20260906220426 | 32 | 296 | 4.8 | 12.9 | 0.00 | 0.00 | 0.00 | 32 | 1018.7 |
| 20260906220349 | 32 | 47 | 4.8 | 12.9 | 0.00 | 0.00 | 0.00 | 35 | 1018.7 |
| 20260906220249 | 32 | 55 | 4.8 | 12.9 | 0.00 | 0.00 | 0.00 | 32 | 1018.7 |
| 20260906220042 | 32 | 331 | 4.8 | 12.9 | 0.00 | 0.00 | 0.00 | 32 | 1018.7 |
| 20260906215920 | 32 | 36 | 4.8 | 17.7 | 0.00 | 0.00 | 0.00 | 32 | 1018.8 |
| 20260906215842 | 32 | 36 | 4.8 | 17.7 | 0.00 | 0.00 | 0.00 | 32 | 1018.8 |
| 20260906215740 | 32 | 49 | 4.8 | 17.7 | 0.00 | 0.00 | 0.00 | 33 | 1018.8 |
| 20260906215634 | 32 | 25 | 4.8 | 17.7 | 0.00 | 0.00 | 0.00 | 32 | 1018.8 |
| 20260906215534 | 32 | 41 | 4.8 | 17.7 | 0.00 | 0.00 | 0.00 | 31 | 1018.8 |
| 20260906215414 | 32 | 27 | 4.8 | 17.7 | 0.00 | 0.00 | 0.00 | 32 | 1019.0 |
| 20260906215335 | 32 | 72 | 6.4 | 17.7 | 0.00 | 0.00 | 0.00 | 33 | 1018.8 |
| 20260906215234 | 32 | 36 | 6.4 | 17.7 | 0.00 | 0.00 | 0.00 | 32 | 1018.8 |
| 20260906215132 | 32 | 28 | 6.4 | 17.7 | 0.00 | 0.00 | 0.00 | 32 | 1018.8 |
| 20260906215033 | 32 | 52 | 6.4 | 17.7 | 0.00 | 0.00 | 0.00 | 32 | 1018.8 |
| 20260906214932 | 32 | 76 | 6.4 | 16.1 | 0.00 | 0.00 | 0.00 | 33 | 1018.8 |
| 20260906214908 | 32 | 34 | 6.4 | 16.1 | 0.00 | 0.00 | 0.00 | 33 | 1018.8 |
| 20260906214830 | 32 | 344 | 8.0 | 16.1 | 0.00 | 0.00 | 0.00 | 33 | 1018.8 |
| 20260906214729 | 32 | 340 | 8.0 | 19.3 | 0.00 | 0.00 | 0.00 | 34 | 1018.8 |
| 20260906214623 | 32 | 348 | 8.0 | 19.3 | 0.00 | 0.00 | 0.00 | 34 | 1018.8 |
| 20260906214523 | 31 | 323 | 8.0 | 19.3 | 0.00 | 0.00 | 0.00 | 33 | 1019.0 |
| 20260906214422 | 31 | 67 | 8.0 | 19.3 | 0.00 | 0.00 | 0.00 | 33 | 1019.0 |
| 20260906214402 | 31 | 117 | 8.0 | 19.3 | 0.00 | 0.00 | 0.00 | 32 | 1019.0 |
| 20260906214323 | 31 | 101 | 9.7 | 19.3 | 0.00 | 0.00 | 0.00 | 33 | 1019.0 |
| 20260906214222 | 31 | 86 | 9.7 | 19.3 | 0.00 | 0.00 | 0.00 | 33 | 1019.0 |
| 20260906214117 | 31 | 43 | 9.7 | 19.3 | 0.00 | 0.00 | 0.00 | 32 | 1019.1 |
| 20260906214016 | 31 | 40 | 9.7 | 19.3 | 0.00 | 0.00 | 0.00 | 32 | 1019.1 |
| 20260906213927 | 32 | 53 | 11.3 | 19.3 | 0.00 | 0.00 | 0.00 | 32 | 1019.1 |
| 20260906213920 | 32 | 32 | 11.3 | 19.3 | 0.00 | 0.00 | 0.00 | 31 | 1019.1 |
| 20260906213718 | 32 | 44 | 9.7 | 17.7 | 0.00 | 0.00 | 0.00 | 34 | 1019.1 |
| 20260906213510 | 32 | 57 | 9.7 | 17.7 | 0.00 | 0.00 | 0.00 | 33 | 1019.1 |
| 20260906213410 | 32 | 322 | 9.7 | 17.7 | 0.00 | 0.00 | 0.00 | 33 | 1019.1 |
| 20260906213350 | 32 | 5 | 9.7 | 17.7 | 0.00 | 0.00 | 0.00 | 33 | 1019.1 |
| 20260906213311 | 32 | 355 | 9.7 | 17.7 | 0.00 | 0.00 | 0.00 | 33 | 1019.1 |
| 20260906213213 | 32 | 54 | 8.0 | 17.7 | 0.00 | 0.00 | 0.00 | 33 | 1019.2 |
| 20260906213007 | 31 | 28 | 8.0 | 17.7 | 0.00 | 0.00 | 0.00 | 32 | 1019.2 |
| 20260906212907 | 31 | 50 | 6.4 | 16.1 | 0.00 | 0.00 | 0.00 | 33 | 1019.2 |
| 20260906212849 | 31 | 71 | 6.4 | 16.1 | 0.00 | 0.00 | 0.00 | 33 | 1019.2 |
| 20260906212811 | 31 | 15 | 6.4 | 16.1 | 0.00 | 0.00 | 0.00 | 33 | 1019.2 |
| 20260906212601 | 31 | 345 | 8.0 | 16.1 | 0.00 | 0.00 | 0.00 | 34 | 1019.3 |
| 20260906212459 | 31 | 337 | 8.0 | 17.7 | 0.00 | 0.00 | 0.00 | 35 | 1019.3 |
| 20260906212359 | 31 | 5 | 8.0 | 17.7 | 0.00 | 0.00 | 0.00 | 34 | 1019.3 |
| 20260906212350 | 31 | 331 | 8.0 | 17.7 | 0.00 | 0.00 | 0.00 | 34 | 1019.3 |
| 20260906212258 | 31 | 28 | 8.0 | 17.7 | 0.00 | 0.00 | 0.00 | 33 | 1019.3 |
| 20260906212158 | 31 | 82 | 6.4 | 17.7 | 0.00 | 0.00 | 0.00 | 33 | 1019.3 |
| 20260906212052 | 31 | 24 | 6.4 | 17.7 | 0.00 | 0.00 | 0.00 | 32 | 1019.4 |
| 20260906212004 | 31 | 36 | 6.4 | 17.7 | 0.00 | 0.00 | 0.00 | 33 | 1019.4 |
| 20260906211853 | 31 | 0 | 6.4 | 17.7 | 0.00 | 0.00 | 0.00 | 32 | 1019.4 |
| 20260906211752 | 31 | 28 | 6.4 | 17.7 | 0.00 | 0.00 | 0.00 | 32 | 1019.4 |
| 20260906211652 | 32 | 5 | 6.4 | 17.7 | 0.00 | 0.00 | 0.00 | 34 | 1019.4 |
| 20260906211549 | 31 | 20 | 6.4 | 17.7 | 0.00 | 0.00 | 0.00 | 32 | 1019.6 |
| 20260906211458 | 31 | 294 | 4.8 | 12.9 | 0.00 | 0.00 | 0.00 | 35 | 1019.4 |
| 20260906211451 | 31 | 355 | 4.8 | 12.9 | 0.00 | 0.00 | 0.00 | 33 | 1019.6 |
| 20260906211247 | 31 | 57 | 6.4 | 12.9 | 0.00 | 0.00 | 0.00 | 33 | 1019.6 |
| 20260906211146 | 31 | 44 | 6.4 | 16.1 | 0.00 | 0.00 | 0.00 | 33 | 1019.4 |
| 20260906211040 | 31 | 5 | 8.0 | 16.1 | 0.00 | 0.00 | 0.00 | 33 | 1019.6 |
| 20260906210940 | 31 | 62 | 8.0 | 16.1 | 0.00 | 0.00 | 0.00 | 32 | 1019.7 |
| 20260906210852 | 31 | 80 | 8.0 | 16.1 | 0.00 | 0.00 | 0.00 | 32 | 1019.7 |
| 20260906210848 | 31 | 80 | 8.0 | 16.1 | 0.00 | 0.00 | 0.00 | 32 | 1019.6 |
| 20260906210641 | 31 | 30 | 8.0 | 16.1 | 0.00 | 0.00 | 0.00 | 33 | 1019.7 |
| 20260906210534 | 31 | 63 | 6.4 | 16.1 | 0.00 | 0.00 | 0.00 | 32 | 1019.7 |
| 20260906210434 | 31 | 66 | 6.4 | 16.1 | 0.00 | 0.00 | 0.00 | 34 | 1019.8 |
| 20260906210347 | 31 | 60 | 6.4 | 16.1 | 0.00 | 0.00 | 0.00 | 32 | 1019.8 |
| 20260906210334 | 31 | 96 | 6.4 | 16.1 | 0.00 | 0.00 | 0.00 | 32 | 1019.8 |
| 20260906210235 | 31 | 49 | 6.4 | 16.1 | 0.00 | 0.00 | 0.00 | 31 | 1019.8 |
| 20260906210134 | 31 | 67 | 6.4 | 16.1 | 0.00 | 0.00 | 0.00 | 32 | 1019.8 |
| 20260906210029 | 31 | 93 | 6.4 | 16.1 | 0.00 | 0.00 | 0.00 | 31 | 1019.8 |
| 20260906205928 | 31 | 103 | 6.4 | 16.1 | 0.00 | 0.00 | 0.00 | 32 | 1019.8 |
| 20260906205848 | 31 | 51 | 6.4 | 16.1 | 0.00 | 0.00 | 0.00 | 33 | 1019.8 |
| 20260906205828 | 31 | 68 | 6.4 | 16.1 | 0.00 | 0.00 | 0.00 | 33 | 1019.8 |
| 20260906205736 | 31 | 105 | 6.4 | 14.5 | 0.00 | 0.00 | 0.00 | 32 | 1019.7 |
| 20260906205528 | 31 | 171 | 6.4 | 14.5 | 0.00 | 0.00 | 0.00 | 32 | 1019.8 |
| 20260906205438 | 31 | 46 | 6.4 | 14.5 | 0.00 | 0.00 | 0.00 | 34 | 1019.8 |
| 20260906205431 | 31 | 44 | 6.4 | 14.5 | 0.00 | 0.00 | 0.00 | 32 | 1019.8 |
| 20260906205224 | 31 | 93 | 6.4 | 14.5 | 0.00 | 0.00 | 0.00 | 31 | 1019.9 |
| 20260906205122 | 31 | 87 | 6.4 | 14.5 | 0.00 | 0.00 | 0.00 | 31 | 1019.9 |
| 20260906205019 | 31 | 102 | 6.4 | 14.5 | 0.00 | 0.00 | 0.00 | 32 | 1019.9 |
| 20260906204954 | 31 | 58 | 6.4 | 16.1 | 0.00 | 0.00 | 0.00 | 32 | 1019.9 |
| 20260906204816 | 31 | 65 | 6.4 | 19.3 | 0.00 | 0.00 | 0.00 | 33 | 1019.9 |
| 20260906204716 | 31 | 342 | 6.4 | 19.3 | 0.00 | 0.00 | 0.00 | 34 | 1019.9 |
| 20260906204616 | 31 | 67 | 8.0 | 19.3 | 0.00 | 0.00 | 0.00 | 34 | 1019.9 |
| 20260906204510 | 31 | 49 | 8.0 | 19.3 | 0.00 | 0.00 | 0.00 | 32 | 1019.9 |
| 20260906204410 | 31 | 27 | 8.0 | 19.3 | 0.00 | 0.00 | 0.00 | 31 | 1020.0 |
| 20260906204348 | 31 | 70 | 8.0 | 19.3 | 0.00 | 0.00 | 0.00 | 31 | 1020.0 |
| 20260906204311 | 31 | 60 | 8.0 | 19.3 | 0.00 | 0.00 | 0.00 | 31 | 1020.0 |
| 20260906204217 | 31 | 67 | 8.0 | 19.3 | 0.00 | 0.00 | 0.00 | 31 | 1020.0 |
| 20260906204004 | 31 | 86 | 8.0 | 19.3 | 0.00 | 0.00 | 0.00 | 32 | 1020.0 |
| 20260906203905 | 31 | 86 | 8.0 | 19.3 | 0.00 | 0.00 | 0.00 | 32 | 1020.2 |
| 20260906203848 | 31 | 88 | 8.0 | 19.3 | 0.00 | 0.00 | 0.00 | 32 | 1020.2 |
| 20260906203812 | 31 | 69 | 8.0 | 19.3 | 0.00 | 0.00 | 0.00 | 31 | 1020.2 |
| 20260906203604 | 31 | 52 | 8.0 | 19.3 | 0.00 | 0.00 | 0.00 | 32 | 1020.2 |
| 20260906203458 | 31 | 33 | 9.7 | 19.3 | 0.00 | 0.00 | 0.00 | 33 | 1020.2 |
| 20260906203359 | 31 | 68 | 8.0 | 19.3 | 0.00 | 0.00 | 0.00 | 32 | 1020.2 |
| 20260906203348 | 31 | 67 | 8.0 | 19.3 | 0.00 | 0.00 | 0.00 | 32 | 1020.2 |
| 20260906203304 | 31 | 59 | 8.0 | 17.7 | 0.00 | 0.00 | 0.00 | 33 | 1020.2 |
| 20260906203056 | 31 | 107 | 8.0 | 17.7 | 0.00 | 0.00 | 0.00 | 33 | 1020.2 |
| 20260906202959 | 31 | 99 | 8.0 | 17.7 | 0.00 | 0.00 | 0.00 | 33 | 1020.2 |
| 20260906202846 | 31 | 60 | 8.0 | 17.7 | 0.00 | 0.00 | 0.00 | 33 | 1020.0 |
| 20260906202751 | 31 | 70 | 8.0 | 17.7 | 0.00 | 0.00 | 0.00 | 33 | 1020.0 |
| 20260906202650 | 31 | 27 | 8.0 | 17.7 | 0.00 | 0.00 | 0.00 | 33 | 1020.0 |
| 20260906202550 | 31 | 309 | 8.0 | 17.7 | 0.00 | 0.00 | 0.00 | 36 | 1020.2 |
| 20260906202451 | 31 | 77 | 8.0 | 16.1 | 0.00 | 0.00 | 0.00 | 36 | 1020.0 |
| 20260906202349 | 30 | 5 | 8.0 | 17.7 | 0.00 | 0.00 | 0.00 | 35 | 1020.0 |
| 20260906202249 | 30 | 38 | 9.7 | 17.7 | 0.00 | 0.00 | 0.00 | 34 | 1020.0 |
| 20260906202202 | 31 | 34 | 9.7 | 17.7 | 0.00 | 0.00 | 0.00 | 36 | 1020.0 |
| 20260906201848 | 30 | 86 | 9.7 | 17.7 | 0.00 | 0.00 | 0.00 | 35 | 1020.2 |
| 20260906201748 | 30 | 53 | 9.7 | 17.7 | 0.00 | 0.00 | 0.00 | 36 | 1020.2 |
| 20260906201649 | 30 | 57 | 9.7 | 17.7 | 0.00 | 0.00 | 0.00 | 34 | 1020.2 |
| 20260906201549 | 30 | 53 | 8.0 | 17.7 | 0.00 | 0.00 | 0.00 | 34 | 1020.2 |
| 20260906201459 | 30 | 46 | 9.7 | 17.7 | 0.00 | 0.00 | 0.00 | 37 | 1020.2 |
| 20260906201348 | 30 | 34 | 9.7 | 17.7 | 0.00 | 0.00 | 0.00 | 35 | 1020.2 |
| 20260906201242 | 30 | 30 | 8.0 | 17.7 | 0.00 | 0.00 | 0.00 | 36 | 1020.2 |
| 20260906201143 | 30 | 5 | 8.0 | 17.7 | 0.00 | 0.00 | 0.00 | 34 | 1020.2 |
| 20260906201042 | 30 | 76 | 9.7 | 20.9 | 0.00 | 0.00 | 0.00 | 36 | 1020.2 |
| 20260906200943 | 30 | 27 | 9.7 | 24.1 | 0.00 | 0.00 | 0.00 | 36 | 1020.2 |
| 20260906200842 | 30 | 22 | 9.7 | 24.1 | 0.00 | 0.00 | 0.00 | 38 | 1020.2 |
| 20260906200754 | 30 | 16 | 9.7 | 24.1 | 0.00 | 0.00 | 0.00 | 37 | 1020.2 |
| 20260906200441 | 30 | 38 | 9.7 | 24.1 | 0.00 | 0.00 | 0.00 | 36 | 1020.4 |
| 20260906200340 | 30 | 40 | 8.0 | 24.1 | 0.00 | 0.00 | 0.00 | 37 | 1020.3 |
| 20260906200334 | 30 | 5 | 8.0 | 24.1 | 0.00 | 0.00 | 0.00 | 37 | 1020.3 |
| 20260906200240 | 30 | 66 | 8.0 | 24.1 | 0.00 | 0.00 | 0.00 | 38 | 1020.4 |
| 20260906200147 | 30 | 62 | 8.0 | 24.1 | 0.00 | 0.00 | 0.00 | 36 | 1020.4 |
| 20260906195941 | 30 | 62 | 8.0 | 19.3 | 0.00 | 0.00 | 0.00 | 36 | 1020.4 |
| 20260906195841 | 30 | 49 | 8.0 | 19.3 | 0.00 | 0.00 | 0.00 | 36 | 1020.4 |
| 20260906195834 | 30 | 42 | 8.0 | 19.3 | 0.00 | 0.00 | 0.00 | 36 | 1020.4 |
| 20260906195740 | 30 | 56 | 8.0 | 19.3 | 0.00 | 0.00 | 0.00 | 35 | 1020.4 |
| 20260906195640 | 30 | 36 | 8.0 | 19.3 | 0.00 | 0.00 | 0.00 | 34 | 1020.4 |
| 20260906195534 | 30 | 21 | 8.0 | 19.3 | 0.00 | 0.00 | 0.00 | 35 | 1020.4 |
| 20260906195446 | 30 | 59 | 6.4 | 19.3 | 0.00 | 0.00 | 0.00 | 35 | 1020.5 |
| 20260906195334 | 30 | 54 | 6.4 | 19.3 | 0.00 | 0.00 | 0.00 | 37 | 1020.4 |
| 20260906195234 | 30 | 350 | 6.4 | 19.3 | 0.00 | 0.00 | 0.00 | 37 | 1020.4 |
| 20260906195134 | 30 | 46 | 6.4 | 19.3 | 0.00 | 0.00 | 0.00 | 36 | 1020.4 |
| 20260906194924 | 30 | 286 | 6.4 | 17.7 | 0.00 | 0.00 | 0.00 | 38 | 1020.4 |
| 20260906194834 | 30 | 341 | 6.4 | 17.7 | 0.00 | 0.00 | 0.00 | 35 | 1020.4 |
| 20260906194824 | 30 | 355 | 6.4 | 17.7 | 0.00 | 0.00 | 0.00 | 35 | 1020.4 |
| 20260906194722 | 30 | 39 | 8.0 | 17.7 | 0.00 | 0.00 | 0.00 | 37 | 1020.5 |
| 20260906194622 | 30 | 58 | 8.0 | 17.7 | 0.00 | 0.00 | 0.00 | 35 | 1020.4 |
| 20260906194520 | 30 | 73 | 8.0 | 17.7 | 0.00 | 0.00 | 0.00 | 35 | 1020.5 |
| 20260906194420 | 30 | 73 | 9.7 | 17.7 | 0.00 | 0.00 | 0.00 | 34 | 1020.4 |
| 20260906194320 | 30 | 73 | 9.7 | 17.7 | 0.00 | 0.00 | 0.00 | 34 | 1020.5 |
| 20260906194224 | 30 | 70 | 9.7 | 17.7 | 0.00 | 0.00 | 0.00 | 35 | 1020.6 |
| 20260906194016 | 30 | 123 | 9.7 | 17.7 | 0.00 | 0.00 | 0.00 | 35 | 1020.6 |
| 20260906193916 | 30 | 39 | 9.7 | 17.7 | 0.00 | 0.00 | 0.00 | 35 | 1020.5 |
| 20260906193831 | 30 | 67 | 8.0 | 17.7 | 0.00 | 0.00 | 0.00 | 35 | 1020.6 |
| 20260906193823 | 30 | 348 | 8.0 | 17.7 | 0.00 | 0.00 | 0.00 | 35 | 1020.6 |
| 20260906193617 | 30 | 49 | 8.0 | 17.7 | 0.00 | 0.00 | 0.00 | 33 | 1020.6 |
| 20260906193516 | 30 | 355 | 8.0 | 17.7 | 0.00 | 0.00 | 0.00 | 33 | 1020.6 |
| 20260906193416 | 30 | 91 | 8.0 | 17.7 | 0.00 | 0.00 | 0.00 | 34 | 1020.6 |
| 20260906193332 | 30 | 38 | 8.0 | 17.7 | 0.00 | 0.00 | 0.00 | 34 | 1020.6 |
| 20260906193316 | 30 | 15 | 8.0 | 16.1 | 0.00 | 0.00 | 0.00 | 34 | 1020.6 |
| 20260906193217 | 30 | 56 | 8.0 | 16.1 | 0.00 | 0.00 | 0.00 | 34 | 1020.5 |
| 20260906193116 | 30 | 38 | 8.0 | 16.1 | 0.00 | 0.00 | 0.00 | 35 | 1020.6 |
| 20260906193017 | 30 | 36 | 8.0 | 16.1 | 0.00 | 0.00 | 0.00 | 35 | 1020.6 |
| 20260906192917 | 30 | 22 | 6.4 | 16.1 | 0.00 | 0.00 | 0.00 | 35 | 1020.6 |
| 20260906192829 | 30 | 76 | 6.4 | 16.1 | 0.00 | 0.00 | 0.00 | 35 | 1020.7 |
| 20260906192810 | 30 | 51 | 6.4 | 16.1 | 0.00 | 0.00 | 0.00 | 34 | 1020.7 |
| 20260906192717 | 30 | 63 | 6.4 | 16.1 | 0.00 | 0.00 | 0.00 | 34 | 1020.6 |
| 20260906192510 | 30 | 38 | 6.4 | 16.1 | 0.00 | 0.00 | 0.00 | 36 | 1020.7 |
| 20260906192410 | 30 | 37 | 6.4 | 16.1 | 0.00 | 0.00 | 0.00 | 34 | 1020.7 |
| 20260906192330 | 30 | 17 | 6.4 | 16.1 | 0.00 | 0.00 | 0.00 | 34 | 1020.7 |
| 20260906192309 | 30 | 34 | 6.4 | 16.1 | 0.00 | 0.00 | 0.00 | 36 | 1020.7 |
| 20260906192209 | 30 | 38 | 6.4 | 14.5 | 0.00 | 0.00 | 0.00 | 38 | 1020.7 |
| 20260906192108 | 30 | 294 | 6.4 | 14.5 | 0.00 | 0.00 | 0.00 | 36 | 1020.7 |
| 20260906192006 | 30 | 26 | 8.0 | 14.5 | 0.00 | 0.00 | 0.00 | 36 | 1020.9 |
| 20260906191937 | 30 | 65 | 8.0 | 14.5 | 0.00 | 0.00 | 0.00 | 36 | 1020.9 |
| 20260906191758 | 30 | 44 | 8.0 | 14.5 | 0.00 | 0.00 | 0.00 | 35 | 1020.9 |
| 20260906191658 | 30 | 42 | 6.4 | 14.5 | 0.00 | 0.00 | 0.00 | 37 | 1021.0 |
| 20260906191558 | 30 | 9 | 8.0 | 14.5 | 0.00 | 0.00 | 0.00 | 36 | 1021.0 |
| 20260906191458 | 30 | 43 | 8.0 | 14.5 | 0.00 | 0.00 | 0.00 | 38 | 1021.1 |
| 20260906191405 | 30 | 80 | 8.0 | 17.7 | 0.00 | 0.00 | 0.00 | 40 | 1021.1 |
| 20260906191358 | 30 | 355 | 8.0 | 17.7 | 0.00 | 0.00 | 0.00 | 40 | 1021.1 |
| 20260906191154 | 30 | 11 | 8.0 | 19.3 | 0.00 | 0.00 | 0.00 | 38 | 1021.1 |
| 20260906191054 | 30 | 18 | 8.0 | 19.3 | 0.00 | 0.00 | 0.00 | 37 | 1021.1 |
| 20260906190953 | 30 | 9 | 8.0 | 19.3 | 0.00 | 0.00 | 0.00 | 36 | 1021.1 |
| 20260906190852 | 30 | 22 | 8.0 | 19.3 | 0.00 | 0.00 | 0.00 | 36 | 1021.1 |
| 20260906190830 | 30 | 17 | 8.0 | 19.3 | 0.00 | 0.00 | 0.00 | 36 | 1021.1 |
| 20260906190752 | 30 | 48 | 8.0 | 19.3 | 0.00 | 0.00 | 0.00 | 38 | 1021.1 |
| 20260906190652 | 30 | 36 | 8.0 | 19.3 | 0.00 | 0.00 | 0.00 | 36 | 1021.1 |
| 20260906190552 | 30 | 63 | 8.0 | 19.3 | 0.00 | 0.00 | 0.00 | 36 | 1021.2 |
| 20260906190459 | 30 | 49 | 6.4 | 19.3 | 0.00 | 0.00 | 0.00 | 37 | 1021.1 |
| 20260906190331 | 30 | 0 | 8.0 | 19.3 | 0.00 | 0.00 | 0.00 | 35 | 1021.2 |
| 20260906190250 | 30 | 51 | 8.0 | 19.3 | 0.00 | 0.00 | 0.00 | 36 | 1021.2 |
| 20260906190148 | 30 | 56 | 6.4 | 19.3 | 0.00 | 0.00 | 0.00 | 36 | 1021.2 |
| 20260906190054 | 30 | 100 | 6.4 | 19.3 | 0.00 | 0.00 | 0.00 | 36 | 1021.2 |
| 20260906185848 | 30 | 97 | 6.4 | 19.3 | 0.00 | 0.00 | 0.00 | 36 | 1021.2 |
| 20260906185830 | 29 | 68 | 6.4 | 19.3 | 0.00 | 0.00 | 0.00 | 35 | 1021.2 |
| 20260906185755 | 29 | 88 | 6.4 | 19.3 | 0.00 | 0.00 | 0.00 | 35 | 1021.2 |
| 20260906185601 | 29 | 82 | 6.4 | 19.3 | 0.00 | 0.00 | 0.00 | 35 | 1021.3 |
| 20260906185328 | 30 | 54 | 6.4 | 19.3 | 0.00 | 0.00 | 0.00 | 36 | 1021.3 |
| 20260906185256 | 30 | 68 | 6.4 | 19.3 | 0.00 | 0.00 | 0.00 | 36 | 1021.3 |
| 20260906185047 | 29 | 77 | 6.4 | 14.5 | 0.00 | 0.00 | 0.00 | 36 | 1021.5 |
| 20260906184947 | 29 | 55 | 6.4 | 14.5 | 0.00 | 0.00 | 0.00 | 37 | 1021.5 |
| 20260906184846 | 29 | 121 | 6.4 | 14.5 | 0.00 | 0.00 | 0.00 | 35 | 1021.5 |
| 20260906184828 | 29 | 84 | 6.4 | 14.5 | 0.00 | 0.00 | 0.00 | 35 | 1021.5 |
| 20260906184745 | 29 | 317 | 6.4 | 14.5 | 0.00 | 0.00 | 0.00 | 38 | 1021.5 |
| 20260906184643 | 29 | 321 | 6.4 | 14.5 | 0.00 | 0.00 | 0.00 | 35 | 1021.5 |
| 20260906184551 | 29 | 14 | 6.4 | 14.5 | 0.00 | 0.00 | 0.00 | 40 | 1021.5 |
| 20260906184342 | 29 | 308 | 6.4 | 14.5 | 0.00 | 0.00 | 0.00 | 38 | 1021.5 |
| 20260906184325 | 29 | 15 | 6.4 | 14.5 | 0.00 | 0.00 | 0.00 | 38 | 1021.6 |
| 20260906184242 | 29 | 22 | 6.4 | 14.5 | 0.00 | 0.00 | 0.00 | 35 | 1021.6 |
| 20260906184142 | 29 | 110 | 6.4 | 14.5 | 0.00 | 0.00 | 0.00 | 35 | 1021.6 |
| 20260906184043 | 29 | 93 | 6.4 | 14.5 | 0.00 | 0.00 | 0.00 | 35 | 1021.6 |
| 20260906183942 | 29 | 50 | 6.4 | 16.1 | 0.00 | 0.00 | 0.00 | 34 | 1021.7 |
| 20260906183842 | 29 | 55 | 6.4 | 16.1 | 0.00 | 0.00 | 0.00 | 36 | 1021.7 |
| 20260906183824 | 29 | 53 | 6.4 | 16.1 | 0.00 | 0.00 | 0.00 | 36 | 1021.6 |
| 20260906183749 | 29 | 58 | 6.4 | 16.1 | 0.00 | 0.00 | 0.00 | 37 | 1021.6 |
| 20260906183544 | 28 | 17 | 6.4 | 16.1 | 0.00 | 0.00 | 0.00 | 34 | 1021.7 |
| 20260906183537 | 28 | 29 | 6.4 | 16.1 | 0.00 | 0.00 | 0.00 | 39 | 1021.7 |
| 20260906183249 | 28 | 74 | 8.0 | 17.7 | 0.00 | 0.00 | 0.00 | 36 | 1021.7 |
| 20260906183042 | 28 | 73 | 8.0 | 17.7 | 0.00 | 0.00 | 0.00 | 37 | 1021.8 |
| 20260906182942 | 28 | 75 | 8.0 | 17.7 | 0.00 | 0.00 | 0.00 | 38 | 1021.7 |
| 20260906182842 | 28 | 355 | 8.0 | 17.7 | 0.00 | 0.00 | 0.00 | 38 | 1021.8 |
| 20260906182824 | 28 | 309 | 8.0 | 17.7 | 0.00 | 0.00 | 0.00 | 38 | 1021.8 |
| 20260906182742 | 28 | 32 | 8.0 | 17.7 | 0.00 | 0.00 | 0.00 | 35 | 1021.8 |
| 20260906182649 | 28 | 24 | 8.0 | 17.7 | 0.00 | 0.00 | 0.00 | 35 | 1021.8 |
| 20260906182440 | 28 | 31 | 6.4 | 17.7 | 0.00 | 0.00 | 0.00 | 35 | 1021.8 |
| 20260906182341 | 28 | 31 | 6.4 | 17.7 | 0.00 | 0.00 | 0.00 | 36 | 1021.9 |
| 20260906182324 | 28 | 31 | 6.4 | 17.7 | 0.00 | 0.00 | 0.00 | 36 | 1021.8 |
| 20260906182241 | 28 | 49 | 4.8 | 14.5 | 0.00 | 0.00 | 0.00 | 36 | 1021.9 |
| 20260906182154 | 28 | 72 | 4.8 | 14.5 | 0.00 | 0.00 | 0.00 | 38 | 1021.9 |
| 20260906181840 | 28 | 59 | 4.8 | 11.3 | 0.00 | 0.00 | 0.00 | 37 | 1021.9 |
| 20260906181821 | 28 | 84 | 4.8 | 11.3 | 0.00 | 0.00 | 0.00 | 38 | 1021.9 |
| 20260906181740 | 28 | 15 | 4.8 | 11.3 | 0.00 | 0.00 | 0.00 | 38 | 1022.0 |
| 20260906181653 | 28 | 26 | 4.8 | 12.9 | 0.00 | 0.00 | 0.00 | 37 | 1021.9 |
| 20260906181428 | 28 | 71 | 4.8 | 14.5 | 0.00 | 0.00 | 0.00 | 37 | 1022.0 |
| 20260906181240 | 28 | 71 | 6.4 | 14.5 | 0.00 | 0.00 | 0.00 | 37 | 1022.2 |
| 20260906181139 | 28 | 55 | 6.4 | 14.5 | 0.00 | 0.00 | 0.00 | 39 | 1022.2 |
| 20260906181041 | 28 | 17 | 6.4 | 14.5 | 0.00 | 0.00 | 0.00 | 40 | 1022.2 |
| 20260906180940 | 28 | 9 | 6.4 | 14.5 | 0.00 | 0.00 | 0.00 | 37 | 1022.2 |
| 20260906180928 | 28 | 43 | 6.4 | 14.5 | 0.00 | 0.00 | 0.00 | 38 | 1022.2 |
| 20260906180740 | 28 | 87 | 8.0 | 14.5 | 0.00 | 0.00 | 0.00 | 39 | 1022.2 |
| 20260906180641 | 28 | 17 | 8.0 | 14.5 | 0.00 | 0.00 | 0.00 | 38 | 1022.2 |
| 20260906180434 | 28 | 26 | 8.0 | 14.5 | 0.00 | 0.00 | 0.00 | 38 | 1022.2 |
| 20260906180334 | 28 | 26 | 6.4 | 12.9 | 0.00 | 0.00 | 0.00 | 37 | 1022.3 |
| 20260906180321 | 28 | 55 | 6.4 | 12.9 | 0.00 | 0.00 | 0.00 | 37 | 1022.3 |
| 20260906180234 | 28 | 56 | 6.4 | 12.9 | 0.00 | 0.00 | 0.00 | 37 | 1022.3 |
| 20260906180132 | 28 | 34 | 6.4 | 12.9 | 0.00 | 0.00 | 0.00 | 38 | 1022.3 |
| 20260906180028 | 28 | 49 | 8.0 | 12.9 | 0.00 | 0.00 | 0.00 | 38 | 1022.3 |
| 20260906175928 | 28 | 78 | 8.0 | 12.9 | 0.00 | 0.00 | 0.00 | 41 | 1022.3 |
| 20260906175829 | 28 | 48 | 6.4 | 16.1 | 0.00 | 0.00 | 0.00 | 39 | 1022.2 |
| 20260906175822 | 28 | 23 | 6.4 | 16.1 | 0.00 | 0.00 | 0.00 | 39 | 1022.2 |
| 20260906175736 | 28 | 96 | 6.4 | 16.1 | 0.00 | 0.00 | 0.00 | 40 | 1022.3 |
| 20260906175528 | 28 | 84 | 6.4 | 16.1 | 0.00 | 0.00 | 0.00 | 41 | 1022.3 |
| 20260906175428 | 27 | 43 | 6.4 | 16.1 | 0.00 | 0.00 | 0.00 | 41 | 1022.4 |
| 20260906175321 | 27 | 50 | 8.0 | 16.1 | 0.00 | 0.00 | 0.00 | 42 | 1022.3 |
| 20260906175228 | 27 | 67 | 8.0 | 16.1 | 0.00 | 0.00 | 0.00 | 40 | 1022.4 |
| 20260906175129 | 27 | 56 | 8.0 | 16.1 | 0.00 | 0.00 | 0.00 | 41 | 1022.4 |
| 20260906175028 | 27 | 97 | 8.0 | 16.1 | 0.00 | 0.00 | 0.00 | 40 | 1022.4 |
| 20260906174928 | 27 | 30 | 8.0 | 16.1 | 0.00 | 0.00 | 0.00 | 40 | 1022.4 |
| 20260906174839 | 27 | 57 | 8.0 | 16.1 | 0.00 | 0.00 | 0.00 | 43 | 1022.4 |
| 20260906174833 | 27 | 38 | 8.0 | 16.1 | 0.00 | 0.00 | 0.00 | 43 | 1022.4 |
| 20260906174628 | 27 | 44 | 8.0 | 16.1 | 0.00 | 0.00 | 0.00 | 39 | 1022.5 |
| 20260906174528 | 28 | 49 | 8.0 | 16.1 | 0.00 | 0.00 | 0.00 | 39 | 1022.6 |
| 20260906174428 | 28 | 41 | 6.4 | 16.1 | 0.00 | 0.00 | 0.00 | 40 | 1022.6 |
| 20260906174329 | 28 | 78 | 6.4 | 16.1 | 0.00 | 0.00 | 0.00 | 42 | 1022.6 |
| 20260906174322 | 28 | 66 | 6.4 | 16.1 | 0.00 | 0.00 | 0.00 | 42 | 1022.6 |
| 20260906174229 | 28 | 22 | 6.4 | 12.9 | 0.00 | 0.00 | 0.00 | 45 | 1022.6 |
| 20260906174125 | 28 | 33 | 4.8 | 12.9 | 0.00 | 0.00 | 0.00 | 44 | 1022.6 |
| 20260906174030 | 28 | 46 | 4.8 | 12.9 | 0.00 | 0.00 | 0.00 | 44 | 1022.8 |
| 20260906173824 | 28 | 355 | 4.8 | 12.9 | 0.00 | 0.00 | 0.00 | 44 | 1022.9 |
| 20260906173724 | 28 | 22 | 4.8 | 12.9 | 0.00 | 0.00 | 0.00 | 44 | 1022.8 |
| 20260906173624 | 28 | 5 | 4.8 | 12.9 | 0.00 | 0.00 | 0.00 | 44 | 1022.9 |
| 20260906173524 | 28 | 0 | 4.8 | 12.9 | 0.00 | 0.00 | 0.00 | 42 | 1022.9 |
| 20260906173424 | 28 | 328 | 6.4 | 12.9 | 0.00 | 0.00 | 0.00 | 43 | 1022.9 |
| 20260906173324 | 28 | 45 | 6.4 | 12.9 | 0.00 | 0.00 | 0.00 | 43 | 1022.9 |
| 20260906173225 | 28 | 20 | 6.4 | 12.9 | 0.00 | 0.00 | 0.00 | 47 | 1023.0 |
| 20260906173124 | 27 | 44 | 6.4 | 12.9 | 0.00 | 0.00 | 0.00 | 46 | 1023.0 |
| 20260906173025 | 27 | 24 | 6.4 | 12.9 | 0.00 | 0.00 | 0.00 | 46 | 1023.0 |
| 20260906172923 | 27 | 350 | 6.4 | 12.9 | 0.00 | 0.00 | 0.00 | 46 | 1023.0 |
| 20260906172824 | 27 | 0 | 6.4 | 12.9 | 0.00 | 0.00 | 0.00 | 45 | 1023.0 |
| 20260906172731 | 27 | 348 | 6.4 | 12.9 | 0.00 | 0.00 | 0.00 | 44 | 1023.0 |
| 20260906172524 | 27 | 101 | 6.4 | 12.9 | 0.00 | 0.00 | 0.00 | 45 | 1023.0 |
| 20260906172424 | 27 | 44 | 6.4 | 12.9 | 0.00 | 0.00 | 0.00 | 44 | 1023.0 |
| 20260906172324 | 27 | 52 | 6.4 | 12.9 | 0.00 | 0.00 | 0.00 | 45 | 1023.0 |
| 20260906172220 | 27 | 61 | 8.0 | 12.9 | 0.00 | 0.00 | 0.00 | 45 | 1023.1 |
| 20260906172120 | 27 | 80 | 8.0 | 16.1 | 0.00 | 0.00 | 0.00 | 45 | 1023.0 |
| 20260906172021 | 27 | 73 | 8.0 | 17.7 | 0.00 | 0.00 | 0.00 | 46 | 1023.1 |
| 20260906171931 | 27 | 104 | 9.7 | 17.7 | 0.00 | 0.00 | 0.00 | 46 | 1023.1 |
| 20260906171820 | 26 | 80 | 8.0 | 17.7 | 0.00 | 0.00 | 0.00 | 45 | 1023.0 |
| 20260906171720 | 26 | 80 | 9.7 | 17.7 | 0.00 | 0.00 | 0.00 | 46 | 1023.1 |
| 20260906171620 | 26 | 82 | 8.0 | 17.7 | 0.00 | 0.00 | 0.00 | 46 | 1023.1 |
| 20260906171520 | 26 | 80 | 8.0 | 17.7 | 0.00 | 0.00 | 0.00 | 47 | 1023.1 |
| 20260906171420 | 26 | 88 | 8.0 | 17.7 | 0.00 | 0.00 | 0.00 | 49 | 1023.1 |
| 20260906171321 | 26 | 71 | 8.0 | 17.7 | 0.00 | 0.00 | 0.00 | 46 | 1023.1 |
| 20260906171219 | 26 | 5 | 8.0 | 17.7 | 0.00 | 0.00 | 0.00 | 45 | 1023.1 |
| 20260906171120 | 27 | 36 | 6.4 | 17.7 | 0.00 | 0.00 | 0.00 | 45 | 1023.1 |
| 20260906171027 | 27 | 42 | 6.4 | 14.5 | 0.00 | 0.00 | 0.00 | 44 | 1023.1 |
| 20260906170820 | 27 | 155 | 6.4 | 11.3 | 0.00 | 0.00 | 0.00 | 45 | 1023.2 |
| 20260906170720 | 27 | 140 | 4.8 | 11.3 | 0.00 | 0.00 | 0.00 | 45 | 1023.2 |
| 20260906170620 | 26 | 45 | 4.8 | 11.3 | 0.00 | 0.00 | 0.00 | 44 | 1023.2 |
| 20260906170520 | 26 | 76 | 4.8 | 11.3 | 0.00 | 0.00 | 0.00 | 46 | 1023.2 |
| 20260906170420 | 26 | 119 | 4.8 | 11.3 | 0.00 | 0.00 | 0.00 | 45 | 1023.4 |
| 20260906170320 | 26 | 107 | 4.8 | 11.3 | 0.00 | 0.00 | 0.00 | 45 | 1023.4 |
| 20260906170316 | 26 | 111 | 4.8 | 11.3 | 0.00 | 0.00 | 0.00 | 45 | 1023.4 |
| 20260906170216 | 26 | 96 | 4.8 | 11.3 | 0.00 | 0.00 | 0.00 | 48 | 1023.4 |
| 20260906170116 | 26 | 58 | 4.8 | 9.7 | 0.00 | 0.00 | 0.00 | 50 | 1023.4 |
| 20260906170022 | 26 | 107 | 4.8 | 9.7 | 0.00 | 0.00 | 0.00 | 46 | 1023.4 |
| 20260906165820 | 26 | 125 | 3.2 | 9.7 | 0.00 | 0.00 | 0.00 | 46 | 1023.5 |
| 20260906165816 | 26 | 119 | 3.2 | 9.7 | 0.00 | 0.00 | 0.00 | 46 | 1023.5 |
| 20260906165716 | 26 | 36 | 4.8 | 9.7 | 0.00 | 0.00 | 0.00 | 47 | 1023.5 |
| 20260906165623 | 26 | 58 | 4.8 | 9.7 | 0.00 | 0.00 | 0.00 | 46 | 1023.5 |
| 20260906165427 | 26 | 56 | 4.8 | 9.7 | 0.00 | 0.00 | 0.00 | 45 | 1023.5 |
| 20260906165316 | 26 | 53 | 4.8 | 9.7 | 0.00 | 0.00 | 0.00 | 46 | 1023.5 |
| 20260906165216 | 26 | 33 | 3.2 | 9.7 | 0.00 | 0.00 | 0.00 | 46 | 1023.5 |
| 20260906165116 | 26 | 69 | 4.8 | 9.7 | 0.00 | 0.00 | 0.00 | 47 | 1023.5 |
| 20260906165016 | 26 | 335 | 4.8 | 9.7 | 0.00 | 0.00 | 0.00 | 47 | 1023.5 |
| 20260906164916 | 25 | 335 | 4.8 | 9.7 | 0.00 | 0.00 | 0.00 | 45 | 1023.5 |
| 20260906164816 | 25 | 335 | 6.4 | 9.7 | 0.00 | 0.00 | 0.00 | 45 | 1023.5 |
| 20260906164716 | 25 | 42 | 6.4 | 12.9 | 0.00 | 0.00 | 0.00 | 45 | 1023.5 |
| 20260906164615 | 25 | 40 | 4.8 | 12.9 | 0.00 | 0.00 | 0.00 | 45 | 1023.5 |
| 20260906164516 | 25 | 34 | 4.8 | 12.9 | 0.00 | 0.00 | 0.00 | 48 | 1023.5 |
| 20260906164424 | 25 | 23 | 4.8 | 12.9 | 0.00 | 0.00 | 0.00 | 46 | 1023.5 |
| 20260906164312 | 25 | 32 | 4.8 | 12.9 | 0.00 | 0.00 | 0.00 | 48 | 1023.5 |
| 20260906164212 | 25 | 67 | 4.8 | 12.9 | 0.00 | 0.00 | 0.00 | 47 | 1023.5 |
| 20260906164125 | 25 | 46 | 4.8 | 12.9 | 0.00 | 0.00 | 0.00 | 46 | 1023.5 |
| 20260906163813 | 26 | 42 | 3.2 | 12.9 | 0.00 | 0.00 | 0.00 | 46 | 1023.5 |
| 20260906163711 | 26 | 44 | 3.2 | 9.7 | 0.00 | 0.00 | 0.00 | 46 | 1023.5 |
| 20260906163612 | 26 | 68 | 3.2 | 9.7 | 0.00 | 0.00 | 0.00 | 46 | 1023.5 |
| 20260906163512 | 26 | 96 | 3.2 | 6.4 | 0.00 | 0.00 | 0.00 | 48 | 1023.5 |
| 20260906163411 | 25 | 156 | 3.2 | 6.4 | 0.00 | 0.00 | 0.00 | 48 | 1023.4 |
| 20260906163318 | 25 | 158 | 3.2 | 4.8 | 0.00 | 0.00 | 0.00 | 48 | 1023.5 |
| 20260906163313 | 25 | 131 | 3.2 | 4.8 | 0.00 | 0.00 | 0.00 | 48 | 1023.5 |
| 20260906163226 | 25 | 141 | 3.2 | 9.7 | 0.00 | 0.00 | 0.00 | 49 | 1023.4 |
| 20260906162912 | 25 | 63 | 4.8 | 11.3 | 0.00 | 0.00 | 0.00 | 53 | 1023.4 |
| 20260906162817 | 25 | 63 | 4.8 | 11.3 | 0.00 | 0.00 | 0.00 | 50 | 1023.4 |
| 20260906162813 | 25 | 62 | 4.8 | 11.3 | 0.00 | 0.00 | 0.00 | 52 | 1023.4 |
| 20260906162712 | 25 | 54 | 4.8 | 11.3 | 0.00 | 0.00 | 0.00 | 49 | 1023.4 |
| 20260906162612 | 25 | 42 | 4.8 | 11.3 | 0.00 | 0.00 | 0.00 | 49 | 1023.5 |
| 20260906162506 | 25 | 57 | 4.8 | 11.3 | 0.00 | 0.00 | 0.00 | 49 | 1023.4 |
| 20260906162407 | 25 | 94 | 4.8 | 11.3 | 0.00 | 0.00 | 0.00 | 49 | 1023.4 |
| 20260906162315 | 25 | 95 | 4.8 | 11.3 | 0.00 | 0.00 | 0.00 | 49 | 1023.4 |
| 20260906162306 | 25 | 104 | 4.8 | 11.3 | 0.00 | 0.00 | 0.00 | 50 | 1023.4 |
| 20260906162206 | 25 | 79 | 3.2 | 11.3 | 0.00 | 0.00 | 0.00 | 51 | 1023.4 |
| 20260906162104 | 25 | 74 | 3.2 | 8.0 | 0.00 | 0.00 | 0.00 | 50 | 1023.4 |
| 20260906162002 | 25 | 32 | 4.8 | 9.7 | 0.00 | 0.00 | 0.00 | 50 | 1023.4 |
| 20260906161902 | 25 | 13 | 4.8 | 9.7 | 0.00 | 0.00 | 0.00 | 50 | 1023.2 |
| 20260906161813 | 25 | 17 | 4.8 | 9.7 | 0.00 | 0.00 | 0.00 | 50 | 1023.4 |
| 20260906161800 | 25 | 44 | 4.8 | 9.7 | 0.00 | 0.00 | 0.00 | 50 | 1023.4 |
| 20260906161659 | 25 | 23 | 4.8 | 9.7 | 0.00 | 0.00 | 0.00 | 51 | 1023.2 |
| 20260906161557 | 25 | 55 | 4.8 | 9.7 | 0.00 | 0.00 | 0.00 | 50 | 1023.4 |
| 20260906161454 | 24 | 72 | 4.8 | 9.7 | 0.00 | 0.00 | 0.00 | 50 | 1023.4 |
| 20260906161404 | 24 | 79 | 4.8 | 9.7 | 0.00 | 0.00 | 0.00 | 51 | 1023.4 |
| 20260906161357 | 24 | 80 | 4.8 | 9.7 | 0.00 | 0.00 | 0.00 | 50 | 1023.2 |
| 20260906161152 | 24 | 80 | 4.8 | 9.7 | 0.00 | 0.00 | 0.00 | 50 | 1023.4 |
| 20260906161051 | 25 | 67 | 4.8 | 9.7 | 0.00 | 0.00 | 0.00 | 50 | 1023.4 |
| 20260906160946 | 25 | 97 | 4.8 | 9.7 | 0.00 | 0.00 | 0.00 | 51 | 1023.2 |
| 20260906160856 | 24 | 40 | 4.8 | 9.7 | 0.00 | 0.00 | 0.00 | 54 | 1023.2 |
| 20260906160850 | 24 | 347 | 4.8 | 9.7 | 0.00 | 0.00 | 0.00 | 54 | 1023.2 |
| 20260906160650 | 24 | 64 | 4.8 | 8.0 | 0.00 | 0.00 | 0.00 | 54 | 1023.2 |
| 20260906160440 | 23 | 134 | 4.8 | 9.7 | 0.00 | 0.00 | 0.00 | 56 | 1023.2 |
| 20260906160339 | 23 | 79 | 4.8 | 9.7 | 0.00 | 0.00 | 0.00 | 55 | 1023.2 |
| 20260906160310 | 23 | 101 | 4.8 | 9.7 | 0.00 | 0.00 | 0.00 | 57 | 1023.2 |
| 20260906160245 | 23 | 103 | 4.8 | 9.7 | 0.00 | 0.00 | 0.00 | 57 | 1023.2 |
| 20260906160035 | 23 | 83 | 6.4 | 9.7 | 0.00 | 0.00 | 0.00 | 57 | 1023.2 |
| 20260906155936 | 23 | 67 | 6.4 | 9.7 | 0.00 | 0.00 | 0.00 | 57 | 1023.2 |
| 20260906155808 | 23 | 18 | 6.4 | 9.7 | 0.00 | 0.00 | 0.00 | 56 | 1023.2 |
| 20260906155730 | 23 | 32 | 6.4 | 9.7 | 0.00 | 0.00 | 0.00 | 56 | 1023.2 |
| 20260906155630 | 23 | 57 | 6.4 | 12.9 | 0.00 | 0.00 | 0.00 | 58 | 1023.2 |
| 20260906155528 | 23 | 17 | 6.4 | 12.9 | 0.00 | 0.00 | 0.00 | 56 | 1023.2 |
| 20260906155427 | 23 | 40 | 6.4 | 12.9 | 0.00 | 0.00 | 0.00 | 56 | 1023.2 |
| 20260906155326 | 23 | 63 | 6.4 | 12.9 | 0.00 | 0.00 | 0.00 | 57 | 1023.2 |
| 20260906155307 | 23 | 68 | 6.4 | 12.9 | 0.00 | 0.00 | 0.00 | 57 | 1023.2 |
| 20260906155226 | 23 | 55 | 8.0 | 12.9 | 0.00 | 0.00 | 0.00 | 57 | 1023.2 |
| 20260906155124 | 23 | 42 | 8.0 | 12.9 | 0.00 | 0.00 | 0.00 | 59 | 1023.2 |
| 20260906155021 | 23 | 71 | 8.0 | 14.5 | 0.00 | 0.00 | 0.00 | 59 | 1023.2 |
| 20260906154918 | 23 | 84 | 8.0 | 14.5 | 0.00 | 0.00 | 0.00 | 59 | 1023.2 |
| 20260906154816 | 23 | 54 | 8.0 | 16.1 | 0.00 | 0.00 | 0.00 | 59 | 1023.2 |
| 20260906154805 | 23 | 60 | 8.0 | 16.1 | 0.00 | 0.00 | 0.00 | 59 | 1023.2 |
| 20260906154716 | 23 | 48 | 8.0 | 16.1 | 0.00 | 0.00 | 0.00 | 59 | 1023.2 |
| 20260906154616 | 23 | 71 | 8.0 | 16.1 | 0.00 | 0.00 | 0.00 | 59 | 1023.2 |
| 20260906154525 | 23 | 34 | 6.4 | 16.1 | 0.00 | 0.00 | 0.00 | 60 | 1023.1 |
| 20260906154305 | 22 | 58 | 8.0 | 16.1 | 0.00 | 0.00 | 0.00 | 59 | 1023.1 |
| 20260906154218 | 22 | 70 | 6.4 | 16.1 | 0.00 | 0.00 | 0.00 | 60 | 1023.1 |
| 20260906154010 | 22 | 61 | 6.4 | 16.1 | 0.00 | 0.00 | 0.00 | 60 | 1023.2 |
| 20260906153811 | 22 | 26 | 4.8 | 12.9 | 0.00 | 0.00 | 0.00 | 60 | 1023.1 |
| 20260906153807 | 22 | 60 | 4.8 | 12.9 | 0.00 | 0.00 | 0.00 | 60 | 1023.1 |
| 20260906153605 | 22 | 57 | 4.8 | 12.9 | 0.00 | 0.00 | 0.00 | 61 | 1023.1 |
| 20260906153353 | 22 | 47 | 4.8 | 12.9 | 0.00 | 0.00 | 0.00 | 61 | 1023.2 |
| 20260906153305 | 22 | 36 | 4.8 | 11.3 | 0.00 | 0.00 | 0.00 | 63 | 1023.1 |
| 20260906153252 | 22 | 82 | 4.8 | 11.3 | 0.00 | 0.00 | 0.00 | 63 | 1023.1 |
| 20260906153159 | 22 | 65 | 4.8 | 12.9 | 0.00 | 0.00 | 0.00 | 65 | 1023.1 |
| 20260906152949 | 22 | 355 | 4.8 | 12.9 | 0.00 | 0.00 | 0.00 | 64 | 1023.1 |
| 20260906152845 | 21 | 30 | 6.4 | 12.9 | 0.00 | 0.00 | 0.00 | 65 | 1023.1 |
| 20260906152805 | 21 | 344 | 6.4 | 12.9 | 0.00 | 0.00 | 0.00 | 64 | 1023.1 |
| 20260906152746 | 21 | 337 | 6.4 | 12.9 | 0.00 | 0.00 | 0.00 | 64 | 1023.1 |
| 20260906152646 | 21 | 69 | 6.4 | 12.9 | 0.00 | 0.00 | 0.00 | 65 | 1023.1 |
| 20260906152546 | 21 | 44 | 6.4 | 12.9 | 0.00 | 0.00 | 0.00 | 65 | 1023.1 |
| 20260906152443 | 21 | 40 | 6.4 | 12.9 | 0.00 | 0.00 | 0.00 | 65 | 1023.1 |
| 20260906152405 | 21 | 44 | 6.4 | 12.9 | 0.00 | 0.00 | 0.00 | 66 | 1023.1 |
| 20260906152238 | 21 | 74 | 6.4 | 12.9 | 0.00 | 0.00 | 0.00 | 66 | 1023.1 |
| 20260906152137 | 21 | 59 | 6.4 | 11.3 | 0.00 | 0.00 | 0.00 | 66 | 1023.1 |
| 20260906152045 | 21 | 341 | 8.0 | 11.3 | 0.00 | 0.00 | 0.00 | 66 | 1023.1 |
| 20260906151844 | 21 | 32 | 6.4 | 11.3 | 0.00 | 0.00 | 0.00 | 66 | 1023.1 |
| 20260906151837 | 21 | 0 | 6.4 | 11.3 | 0.00 | 0.00 | 0.00 | 66 | 1023.1 |
| 20260906151631 | 21 | 36 | 6.4 | 11.3 | 0.00 | 0.00 | 0.00 | 67 | 1023.1 |
| 20260906151532 | 21 | 59 | 6.4 | 11.3 | 0.00 | 0.00 | 0.00 | 67 | 1023.1 |
| 20260906151431 | 21 | 44 | 4.8 | 11.3 | 0.00 | 0.00 | 0.00 | 68 | 1023.1 |
| 20260906151325 | 20 | 37 | 4.8 | 11.3 | 0.00 | 0.00 | 0.00 | 68 | 1023.1 |
| 20260906151247 | 20 | 63 | 4.8 | 11.3 | 0.00 | 0.00 | 0.00 | 69 | 1023.1 |
| 20260906151225 | 20 | 39 | 4.8 | 11.3 | 0.00 | 0.00 | 0.00 | 69 | 1023.1 |
| 20260906151126 | 20 | 11 | 4.8 | 11.3 | 0.00 | 0.00 | 0.00 | 69 | 1023.1 |
| 20260906151040 | 20 | 63 | 3.2 | 8.0 | 0.00 | 0.00 | 0.00 | 69 | 1023.2 |
| 20260906150740 | 20 | 69 | 3.2 | 8.0 | 0.00 | 0.00 | 0.00 | 69 | 1023.2 |
| 20260906150722 | 20 | 54 | 3.2 | 8.0 | 0.00 | 0.00 | 0.00 | 69 | 1023.2 |
| 20260906150621 | 20 | 46 | 3.2 | 6.4 | 0.00 | 0.00 | 0.00 | 69 | 1023.1 |
| 20260906150522 | 20 | 331 | 3.2 | 8.0 | 0.00 | 0.00 | 0.00 | 69 | 1023.2 |
| 20260906150419 | 20 | 330 | 4.8 | 8.0 | 0.00 | 0.00 | 0.00 | 70 | 1023.2 |
| 20260906150314 | 20 | 351 | 4.8 | 8.0 | 0.00 | 0.00 | 0.00 | 70 | 1023.2 |
| 20260906150235 | 20 | 300 | 4.8 | 8.0 | 0.00 | 0.00 | 0.00 | 70 | 1023.2 |
| 20260906150213 | 20 | 292 | 4.8 | 8.0 | 0.00 | 0.00 | 0.00 | 70 | 1023.2 |
| 20260906150114 | 20 | 292 | 4.8 | 8.0 | 0.00 | 0.00 | 0.00 | 70 | 1023.2 |
| 20260906150014 | 20 | 0 | 4.8 | 8.0 | 0.00 | 0.00 | 0.00 | 70 | 1023.4 |
| 20260906145914 | 20 | 45 | 3.2 | 8.0 | 0.00 | 0.00 | 0.00 | 70 | 1023.4 |
| 20260906145819 | 20 | 27 | 3.2 | 8.0 | 0.00 | 0.00 | 0.00 | 70 | 1023.4 |
| 20260906145812 | 20 | 17 | 3.2 | 8.0 | 0.00 | 0.00 | 0.00 | 70 | 1023.4 |
| 20260906145608 | 20 | 17 | 3.2 | 8.0 | 0.00 | 0.00 | 0.00 | 71 | 1023.2 |
| 20260906145514 | 20 | 36 | 3.2 | 8.0 | 0.00 | 0.00 | 0.00 | 71 | 1023.4 |
| 20260906145308 | 20 | 333 | 3.2 | 8.0 | 0.00 | 0.00 | 0.00 | 72 | 1023.4 |
| 20260906145223 | 20 | 319 | 3.2 | 8.0 | 0.00 | 0.00 | 0.00 | 72 | 1023.4 |
| 20260906145206 | 20 | 355 | 3.2 | 8.0 | 0.00 | 0.00 | 0.00 | 72 | 1023.4 |
| 20260906145105 | 20 | 351 | 3.2 | 8.0 | 0.00 | 0.00 | 0.00 | 72 | 1023.2 |
| 20260906145003 | 20 | 38 | 3.2 | 8.0 | 0.00 | 0.00 | 0.00 | 73 | 1023.2 |
| 20260906144901 | 20 | 38 | 3.2 | 8.0 | 0.00 | 0.00 | 0.00 | 73 | 1023.2 |
| 20260906144802 | 20 | 38 | 3.2 | 8.0 | 0.00 | 0.00 | 0.00 | 73 | 1023.2 |
| 20260906144716 | 20 | 32 | 4.8 | 8.0 | 0.00 | 0.00 | 0.00 | 73 | 1023.2 |
| 20260906144700 | 20 | 32 | 4.8 | 8.0 | 0.00 | 0.00 | 0.00 | 73 | 1023.2 |
| 20260906144559 | 19 | 51 | 3.2 | 8.0 | 0.00 | 0.00 | 0.00 | 74 | 1023.1 |
| 20260906144458 | 19 | 0 | 3.2 | 8.0 | 0.00 | 0.00 | 0.00 | 73 | 1023.2 |
| 20260906144355 | 19 | 47 | 3.2 | 8.0 | 0.00 | 0.00 | 0.00 | 73 | 1023.1 |
| 20260906144317 | 19 | 28 | 3.2 | 8.0 | 0.00 | 0.00 | 0.00 | 73 | 1023.2 |
| 20260906144154 | 19 | 39 | 3.2 | 8.0 | 0.00 | 0.00 | 0.00 | 74 | 1023.2 |
| 20260906144058 | 19 | 39 | 4.8 | 8.0 | 0.00 | 0.00 | 0.00 | 74 | 1023.4 |
| 20260906143850 | 19 | 39 | 4.8 | 9.7 | 0.00 | 0.00 | 0.00 | 75 | 1023.2 |
| 20260906143750 | 19 | 340 | 4.8 | 9.7 | 0.00 | 0.00 | 0.00 | 75 | 1023.4 |
| 20260906143705 | 19 | 321 | 4.8 | 9.7 | 0.00 | 0.00 | 0.00 | 75 | 1023.4 |
| 20260906143648 | 19 | 30 | 4.8 | 9.7 | 0.00 | 0.00 | 0.00 | 75 | 1023.4 |
| 20260906143547 | 19 | 355 | 4.8 | 9.7 | 0.00 | 0.00 | 0.00 | 75 | 1023.2 |
| 20260906143445 | 19 | 355 | 4.8 | 9.7 | 0.00 | 0.00 | 0.00 | 74 | 1023.1 |
| 20260906143345 | 19 | 331 | 4.8 | 9.7 | 0.00 | 0.00 | 0.00 | 74 | 1023.1 |
| 20260906143159 | 19 | 0 | 4.8 | 9.7 | 0.00 | 0.00 | 0.00 | 74 | 1023.2 |
| 20260906143138 | 19 | 17 | 4.8 | 9.7 | 0.00 | 0.00 | 0.00 | 74 | 1023.1 |
| 20260906143038 | 19 | 344 | 4.8 | 9.7 | 0.00 | 0.00 | 0.00 | 75 | 1023.1 |
| 20260906142937 | 19 | 355 | 4.8 | 9.7 | 0.00 | 0.00 | 0.00 | 75 | 1023.2 |
| 20260906142838 | 19 | 355 | 4.8 | 9.7 | 0.00 | 0.00 | 0.00 | 75 | 1023.2 |
| 20260906142759 | 19 | 313 | 4.8 | 9.7 | 0.00 | 0.00 | 0.00 | 75 | 1023.2 |
| 20260906142636 | 19 | 5 | 4.8 | 9.7 | 0.00 | 0.00 | 0.00 | 75 | 1023.2 |
| 20260906142535 | 19 | 5 | 4.8 | 9.7 | 0.00 | 0.00 | 0.00 | 75 | 1023.2 |
| 20260906142434 | 19 | 15 | 4.8 | 9.7 | 0.00 | 0.00 | 0.00 | 76 | 1023.2 |
| 20260906142331 | 18 | 23 | 4.8 | 9.7 | 0.00 | 0.00 | 0.00 | 76 | 1023.2 |
| 20260906142258 | 18 | 344 | 3.2 | 9.7 | 0.00 | 0.00 | 0.00 | 76 | 1023.2 |
| 20260906142126 | 18 | 348 | 3.2 | 9.7 | 0.00 | 0.00 | 0.00 | 76 | 1023.2 |
| 20260906142026 | 18 | 341 | 3.2 | 8.0 | 0.00 | 0.00 | 0.00 | 76 | 1023.2 |
| 20260906141926 | 18 | 324 | 3.2 | 8.0 | 0.00 | 0.00 | 0.00 | 76 | 1023.2 |
| 20260906141825 | 18 | 315 | 3.2 | 8.0 | 0.00 | 0.00 | 0.00 | 75 | 1023.2 |
| 20260906141735 | 18 | 314 | 3.2 | 8.0 | 0.00 | 0.00 | 0.00 | 76 | 1023.4 |
| 20260906141728 | 18 | 314 | 3.2 | 8.0 | 0.00 | 0.00 | 0.00 | 76 | 1023.4 |
| 20260906141524 | 18 | 355 | 3.2 | 8.0 | 0.00 | 0.00 | 0.00 | 76 | 1023.2 |
| 20260906141422 | 18 | 34 | 3.2 | 8.0 | 0.00 | 0.00 | 0.00 | 76 | 1023.2 |
| 20260906141319 | 18 | 34 | 3.2 | 8.0 | 0.00 | 0.00 | 0.00 | 76 | 1023.1 |
| 20260906141213 | 18 | 34 | 3.2 | 8.0 | 0.00 | 0.00 | 0.00 | 76 | 1023.1 |
| 20260906141149 | 18 | 34 | 3.2 | 8.0 | 0.00 | 0.00 | 0.00 | 76 | 1023.1 |
| 20260906141113 | 18 | 34 | 3.2 | 8.0 | 0.00 | 0.00 | 0.00 | 76 | 1023.1 |
| 20260906141014 | 18 | 34 | 3.2 | 8.0 | 0.00 | 0.00 | 0.00 | 76 | 1023.1 |
| 20260906140914 | 18 | 34 | 3.2 | 8.0 | 0.00 | 0.00 | 0.00 | 76 | 1023.1 |
| 20260906140813 | 18 | 34 | 3.2 | 8.0 | 0.00 | 0.00 | 0.00 | 76 | 1023.1 |
| 20260906140718 | 18 | 37 | 3.2 | 8.0 | 0.00 | 0.00 | 0.00 | 76 | 1023.2 |
| 20260906140711 | 18 | 344 | 3.2 | 8.0 | 0.00 | 0.00 | 0.00 | 76 | 1023.2 |
| 20260906140508 | 18 | 344 | 1.6 | 8.0 | 0.00 | 0.00 | 0.00 | 77 | 1023.2 |
| 20260906140408 | 18 | 342 | 1.6 | 8.0 | 0.00 | 0.00 | 0.00 | 77 | 1023.2 |
| 20260906140307 | 18 | 305 | 1.6 | 6.4 | 0.00 | 0.00 | 0.00 | 77 | 1023.4 |
| 20260906140145 | 18 | 305 | 3.2 | 6.4 | 0.00 | 0.00 | 0.00 | 77 | 1023.2 |
| 20260906140002 | 18 | 305 | 3.2 | 8.0 | 0.00 | 0.00 | 0.00 | 77 | 1023.2 |
| 20260906135859 | 18 | 305 | 4.8 | 9.7 | 0.00 | 0.00 | 0.00 | 77 | 1023.2 |
| 20260906135759 | 18 | 305 | 4.8 | 9.7 | 0.00 | 0.00 | 0.00 | 77 | 1023.2 |
| 20260906135752 | 18 | 305 | 4.8 | 9.7 | 0.00 | 0.00 | 0.00 | 77 | 1023.2 |
| 20260906135556 | 18 | 305 | 4.8 | 11.3 | 0.00 | 0.00 | 0.00 | 77 | 1023.2 |
| 20260906135455 | 18 | 305 | 4.8 | 11.3 | 0.00 | 0.00 | 0.00 | 77 | 1023.2 |
| 20260906135401 | 18 | 305 | 4.8 | 11.3 | 0.00 | 0.00 | 0.00 | 77 | 1023.2 |
| 20260906135150 | 17 | 327 | 4.8 | 11.3 | 0.00 | 0.00 | 0.00 | 77 | 1023.1 |
| 20260906135143 | 17 | 326 | 4.8 | 11.3 | 0.00 | 0.00 | 0.00 | 77 | 1023.1 |
| 20260906135048 | 17 | 318 | 4.8 | 11.3 | 0.00 | 0.00 | 0.00 | 77 | 1023.1 |
| 20260906134947 | 17 | 321 | 3.2 | 11.3 | 0.00 | 0.00 | 0.00 | 77 | 1023.2 |
| 20260906134847 | 17 | 305 | 4.8 | 11.3 | 0.00 | 0.00 | 0.00 | 77 | 1023.2 |
| 20260906134747 | 17 | 305 | 4.8 | 11.3 | 0.00 | 0.00 | 0.00 | 77 | 1023.1 |
| 20260906134642 | 17 | 300 | 3.2 | 11.3 | 0.00 | 0.00 | 0.00 | 77 | 1023.1 |
| 20260906134548 | 17 | 336 | 3.2 | 11.3 | 0.00 | 0.00 | 0.00 | 76 | 1023.2 |
| 20260906134342 | 17 | 336 | 4.8 | 11.3 | 0.00 | 0.00 | 0.00 | 76 | 1023.1 |
| 20260906134241 | 17 | 5 | 4.8 | 11.3 | 0.00 | 0.00 | 0.00 | 76 | 1023.1 |
| 20260906134141 | 17 | 321 | 4.8 | 12.9 | 0.00 | 0.00 | 0.00 | 77 | 1023.1 |
| 20260906134136 | 17 | 355 | 6.4 | 12.9 | 0.00 | 0.00 | 0.00 | 77 | 1023.1 |
| 20260906134036 | 17 | 321 | 6.4 | 12.9 | 0.00 | 0.00 | 0.00 | 77 | 1023.1 |
| 20260906133935 | 17 | 329 | 6.4 | 12.9 | 0.00 | 0.00 | 0.00 | 77 | 1023.0 |
| 20260906133841 | 17 | 309 | 6.4 | 12.9 | 0.00 | 0.00 | 0.00 | 77 | 1023.0 |
| 20260906133642 | 17 | 298 | 8.0 | 12.9 | 0.00 | 0.00 | 0.00 | 77 | 1023.1 |
| 20260906133629 | 17 | 336 | 8.0 | 12.9 | 0.00 | 0.00 | 0.00 | 77 | 1023.0 |
| 20260906133530 | 17 | 268 | 8.0 | 12.9 | 0.00 | 0.00 | 0.00 | 77 | 1023.0 |
| 20260906133430 | 17 | 304 | 8.0 | 12.9 | 0.00 | 0.00 | 0.00 | 77 | 1023.0 |
| 20260906133330 | 17 | 329 | 8.0 | 12.9 | 0.00 | 0.00 | 0.00 | 77 | 1022.9 |
| 20260906133229 | 17 | 317 | 8.0 | 12.9 | 0.00 | 0.00 | 0.00 | 77 | 1023.0 |
| 20260906133141 | 17 | 304 | 8.0 | 12.9 | 0.00 | 0.00 | 0.00 | 77 | 1023.0 |
| 20260906133123 | 17 | 294 | 8.0 | 12.9 | 0.00 | 0.00 | 0.00 | 76 | 1023.0 |
| 20260906133023 | 17 | 304 | 6.4 | 12.9 | 0.00 | 0.00 | 0.00 | 76 | 1023.0 |
| 20260906132924 | 17 | 298 | 6.4 | 12.9 | 0.00 | 0.00 | 0.00 | 76 | 1023.0 |
| 20260906132830 | 17 | 321 | 6.4 | 12.9 | 0.00 | 0.00 | 0.00 | 76 | 1023.0 |
| 20260906132642 | 17 | 324 | 6.4 | 11.3 | 0.00 | 0.00 | 0.00 | 75 | 1023.0 |
| 20260906132619 | 17 | 327 | 6.4 | 11.3 | 0.00 | 0.00 | 0.00 | 75 | 1023.1 |
| 20260906132518 | 17 | 323 | 6.4 | 11.3 | 0.00 | 0.00 | 0.00 | 76 | 1023.0 |
| 20260906132418 | 16 | 307 | 6.4 | 11.3 | 0.00 | 0.00 | 0.00 | 76 | 1023.0 |
| 20260906132318 | 16 | 331 | 6.4 | 11.3 | 0.00 | 0.00 | 0.00 | 75 | 1023.0 |
| 20260906132228 | 16 | 317 | 6.4 | 11.3 | 0.00 | 0.00 | 0.00 | 75 | 1023.0 |
| 20260906132222 | 16 | 311 | 6.4 | 11.3 | 0.00 | 0.00 | 0.00 | 75 | 1023.0 |
| 20260906132016 | 16 | 293 | 6.4 | 11.3 | 0.00 | 0.00 | 0.00 | 75 | 1023.0 |
| 20260906131914 | 16 | 292 | 6.4 | 11.3 | 0.00 | 0.00 | 0.00 | 75 | 1023.0 |
| 20260906131814 | 16 | 313 | 6.4 | 11.3 | 0.00 | 0.00 | 0.00 | 75 | 1023.0 |
| 20260906131711 | 16 | 319 | 6.4 | 11.3 | 0.00 | 0.00 | 0.00 | 75 | 1022.9 |
| 20260906131641 | 16 | 290 | 6.4 | 11.3 | 0.00 | 0.00 | 0.00 | 75 | 1022.9 |
| 20260906131612 | 16 | 316 | 6.4 | 11.3 | 0.00 | 0.00 | 0.00 | 75 | 1023.0 |
| 20260906131511 | -17 | 321 | 6.4 | 11.3 | 0.00 | 0.00 | 0.00 | 1023.0 | |
| 20260906131410 | -17 | 296 | 6.4 | 11.3 | 0.00 | 0.00 | 0.00 | 1023.0 | |
| 20260906131310 | -17 | 336 | 6.4 | 11.3 | 0.00 | 0.00 | 0.00 | 1023.0 | |
| 20260906131209 | -17 | 310 | 6.4 | 11.3 | 0.00 | 0.00 | 0.00 | 1023.0 | |
| 20260906131140 | -17 | 302 | 6.4 | 11.3 | 0.00 | 0.00 | 0.00 | 1023.0 | |
| 20260906131109 | -17 | 336 | 6.4 | 11.3 | 0.00 | 0.00 | 0.00 | 1023.0 | |
| 20260906131010 | -17 | 343 | 6.4 | 11.3 | 0.00 | 0.00 | 0.00 | 1023.0 | |
| 20260906130909 | -17 | 321 | 6.4 | 11.3 | 0.00 | 0.00 | 0.00 | 1023.0 | |
| 20260906130807 | -17 | 300 | 6.4 | 11.3 | 0.00 | 0.00 | 0.00 | 1023.0 | |
| 20260906130704 | -17 | 302 | 6.4 | 11.3 | 0.00 | 0.00 | 0.00 | 1023.0 | |
| 20260906130641 | -17 | 286 | 6.4 | 11.3 | 0.00 | 0.00 | 0.00 | 1023.0 | |
| 20260906130603 | -17 | 309 | 6.4 | 11.3 | 0.00 | 0.00 | 0.00 | 1023.0 | |
| 20260906130504 | -17 | 298 | 6.4 | 11.3 | 0.00 | 0.00 | 0.00 | 1023.0 | |
| 20260906130403 | -17 | 321 | 6.4 | 11.3 | 0.00 | 0.00 | 0.00 | 1022.9 | |
| 20260906130303 | -17 | 305 | 6.4 | 11.3 | 0.00 | 0.00 | 0.00 | 1023.0 | |
| 20260906130204 | -17 | 327 | 6.4 | 11.3 | 0.00 | 0.00 | 0.00 | 1023.0 | |
| 20260906130142 | -17 | 301 | 6.4 | 11.3 | 0.00 | 0.00 | 0.00 | 1023.0 | |
| 20260906130103 | -17 | 305 | 6.4 | 11.3 | 0.00 | 0.00 | 0.00 | 1022.9 | |
| 20260906130004 | -17 | 306 | 4.8 | 11.3 | 0.00 | 0.00 | 0.00 | 1023.0 | |
| 20260906125904 | -17 | 306 | 4.8 | 8.0 | 0.00 | 0.00 | 0.00 | 1022.9 | |
| 20260906125801 | -17 | 306 | 4.8 | 8.0 | 0.00 | 0.00 | 0.00 | 1022.9 | |
| 20260906125701 | -17 | 306 | 3.2 | 8.0 | 0.00 | 0.00 | 0.00 | 1022.9 | |
| 20260906125641 | -17 | 306 | 3.2 | 6.4 | 0.00 | 0.00 | 0.00 | 1022.9 | |
| 20260906125602 | -17 | 306 | 3.2 | 6.4 | 0.00 | 0.00 | 0.00 | 1022.9 | |
| 20260906125509 | -17 | 306 | 3.2 | 6.4 | 0.00 | 0.00 | 0.00 | 1022.9 | |
| 20260906125259 | -17 | 341 | 3.2 | 6.4 | 0.00 | 0.00 | 0.00 | 1022.9 | |
| 20260906125200 | -17 | 341 | 3.2 | 4.8 | 0.00 | 0.00 | 0.00 | 1022.9 | |
| 20260906125139 | -17 | 341 | 1.6 | 4.8 | 0.00 | 0.00 | 0.00 | 1022.9 | |
| 20260906125054 | -17 | 341 | 1.6 | 6.4 | 0.00 | 0.00 | 0.00 | 1022.9 | |
| 20260906124954 | -17 | 341 | 3.2 | 6.4 | 0.00 | 0.00 | 0.00 | 1022.9 | |
| 20260906124853 | -17 | 341 | 3.2 | 6.4 | 0.00 | 0.00 | 0.00 | 1022.9 | |
| 20260906124811 | -17 | 341 | 3.2 | 6.4 | 0.00 | 0.00 | 0.00 | 1022.9 | |
| 20260906124804 | -17 | 341 | 3.2 | 6.4 | 0.00 | 0.00 | 0.00 | 1022.9 | |
| 20260906124347 | -17 | 341 | 3.2 | 6.4 | 0.00 | 0.00 | 0.00 | 1022.8 | |
| 20260906124137 | -17 | 341 | 3.2 | 6.4 | 0.00 | 0.00 | 0.00 | 1022.8 | |
| 20260906124038 | -17 | 320 | 1.6 | 6.4 | 0.00 | 0.00 | 0.00 | 1022.8 | |
| 20260906123951 | -17 | 326 | 1.6 | 6.4 | 0.00 | 0.00 | 0.00 | 1022.8 | |
| 20260906123637 | -17 | 326 | 1.6 | 4.8 | 0.00 | 0.00 | 0.00 | 1022.9 | |
| 20260906123538 | -17 | 326 | 1.6 | 4.8 | 0.00 | 0.00 | 0.00 | 1022.8 | |
| 20260906123437 | -17 | 326 | 1.6 | 4.8 | 0.00 | 0.00 | 0.00 | 1022.8 | |
| 20260906123338 | -17 | 326 | 1.6 | 4.8 | 0.00 | 0.00 | 0.00 | 1022.8 | |
| 20260906123237 | -17 | 326 | 1.6 | 4.8 | 0.00 | 0.00 | 0.00 | 1022.8 | |
| 20260906123137 | -17 | 325 | 1.6 | 4.8 | 0.00 | 0.00 | 0.00 | 1022.8 | |
| 20260906123038 | -17 | 326 | 1.6 | 6.4 | 0.00 | 0.00 | 0.00 | 1022.8 | |
| 20260906122936 | -17 | 325 | 3.2 | 6.4 | 0.00 | 0.00 | 0.00 | 1022.8 | |
| 20260906122836 | -17 | 326 | 3.2 | 6.4 | 0.00 | 0.00 | 0.00 | 1022.8 | |
| 20260906122736 | -17 | 326 | 3.2 | 6.4 | 0.00 | 0.00 | 0.00 | 1022.8 | |
| 20260906122631 | -17 | 326 | 3.2 | 6.4 | 0.00 | 0.00 | 0.00 | 1022.8 | |
| 20260906122526 | -17 | 326 | 3.2 | 6.4 | 0.00 | 0.00 | 0.00 | 1022.8 | |
| 20260906122425 | -17 | 326 | 3.2 | 6.4 | 0.00 | 0.00 | 0.00 | 1022.8 | |
| 20260906122321 | -17 | 326 | 3.2 | 6.4 | 0.00 | 0.00 | 0.00 | 1022.8 | |
| 20260906122220 | -17 | 326 | 3.2 | 6.4 | 0.00 | 0.00 | 0.00 | 1022.8 | |
| 20260906122120 | -17 | 326 | 3.2 | 6.4 | 0.00 | 0.00 | 0.00 | 1022.8 | |
| 20260906122027 | -17 | 321 | 3.2 | 8.0 | 0.00 | 0.00 | 0.00 | 1022.8 | |
| 20260906121817 | -17 | 321 | 4.8 | 11.3 | 0.00 | 0.00 | 0.00 | 1022.8 | |
| 20260906121716 | -17 | 321 | 4.8 | 11.3 | 0.00 | 0.00 | 0.00 | 1022.8 | |
| 20260906121616 | -17 | 321 | 4.8 | 11.3 | 0.00 | 0.00 | 0.00 | 1022.8 | |
| 20260906121513 | -17 | 321 | 4.8 | 11.3 | 0.00 | 0.00 | 0.00 | 1022.8 | |
| 20260906121413 | -17 | 321 | 4.8 | 11.3 | 0.00 | 0.00 | 0.00 | 1022.8 | |
| 20260906121312 | -17 | 321 | 6.4 | 11.3 | 0.00 | 0.00 | 0.00 | 1022.8 | |
| 20260906121212 | -17 | 294 | 6.4 | 11.3 | 0.00 | 0.00 | 0.00 | 1022.8 | |
| 20260906121131 | -17 | 300 | 4.8 | 11.3 | 0.00 | 0.00 | 0.00 | 1022.8 | |
| 20260906121113 | -17 | 299 | 4.8 | 11.3 | 0.00 | 0.00 | 0.00 | 1022.8 | |
| 20260906120915 | -17 | 315 | 4.8 | 11.3 | 0.00 | 0.00 | 0.00 | 1022.6 | |
| 20260906120631 | -17 | 317 | 4.8 | 8.0 | 0.00 | 0.00 | 0.00 | 1022.6 | |
| 20260906120602 | -17 | 315 | 4.8 | 8.0 | 0.00 | 0.00 | 0.00 | 1022.6 | |
| 20260906120528 | -17 | 294 | 4.8 | 8.0 | 0.00 | 0.00 | 0.00 | 1022.6 | |
| 20260906120201 | -17 | 331 | 3.2 | 9.7 | 0.00 | 0.00 | 0.00 | 1022.8 | |
| 20260906115956 | -17 | 343 | 4.8 | 9.7 | 0.00 | 0.00 | 0.00 | 1022.8 | |
| 20260906115902 | -17 | 343 | 4.8 | 9.7 | 0.00 | 0.00 | 0.00 | 1022.8 | |
| 20260906115654 | -17 | 294 | 4.8 | 9.7 | 0.00 | 0.00 | 0.00 | 1022.8 | |
| 20260906115626 | -17 | 294 | 3.2 | 9.7 | 0.00 | 0.00 | 0.00 | 1022.8 | |
| 20260906115552 | -17 | 326 | 3.2 | 9.7 | 0.00 | 0.00 | 0.00 | 1022.8 | |
| 20260906115452 | -17 | 317 | 3.2 | 8.0 | 0.00 | 0.00 | 0.00 | 1022.8 | |
| 20260906115416 | -17 | 266 | 4.8 | 8.0 | 0.00 | 0.00 | 0.00 | 1022.8 | |
| 20260906115410 | -17 | 289 | 4.8 | 8.0 | 0.00 | 0.00 | 0.00 | 1022.9 | |
| 20260906114840 | -17 | 290 | 3.2 | 6.4 | 0.00 | 0.00 | 0.00 | 1022.9 | |
| 20260906114740 | -17 | 290 | 3.2 | 6.4 | 0.00 | 0.00 | 0.00 | 1022.8 | |
| 20260906114620 | -17 | 290 | 3.2 | 6.4 | 0.00 | 0.00 | 0.00 | 1022.9 | |
| 20260906114557 | -17 | 290 | 3.2 | 6.4 | 0.00 | 0.00 | 0.00 | 1022.9 | |
| 20260906114121 | -17 | 314 | 1.6 | 4.8 | 0.00 | 0.00 | 0.00 | 1022.9 | |
| 20260906114035 | -17 | 314 | 1.6 | 4.8 | 0.00 | 0.00 | 0.00 | 1022.8 | |
| 20260906113942 | -17 | 314 | 1.6 | 4.8 | 0.00 | 0.00 | 0.00 | 1022.9 | |
| 20260906113734 | -17 | 314 | 1.6 | 4.8 | 0.00 | 0.00 | 0.00 | 1022.9 | |
| 20260906113621 | -17 | 314 | 1.6 | 6.4 | 0.00 | 0.00 | 0.00 | 1022.9 | |
| 20260906113532 | -17 | 314 | 1.6 | 8.0 | 0.00 | 0.00 | 0.00 | 1022.9 | |
| 20260906113430 | -17 | 314 | 3.2 | 8.0 | 0.00 | 0.00 | 0.00 | 1022.9 | |
| 20260906113330 | -17 | 314 | 3.2 | 8.0 | 0.00 | 0.00 | 0.00 | 1022.8 | |
| 20260906113234 | -17 | 314 | 3.2 | 8.0 | 0.00 | 0.00 | 0.00 | 1022.8 | |
| 20260906113119 | -17 | 314 | 4.8 | 11.3 | 0.00 | 0.00 | 0.00 | 1022.8 | |
| 20260906113025 | -17 | 314 | 4.8 | 11.3 | 0.00 | 0.00 | 0.00 | 1022.8 | |
| 20260906112924 | -17 | 348 | 4.8 | 11.3 | 0.00 | 0.00 | 0.00 | 1022.8 | |
| 20260906112816 | -17 | 348 | 4.8 | 11.3 | 0.00 | 0.00 | 0.00 | 1022.8 | |
| 20260906112715 | -17 | 348 | 6.4 | 11.3 | 0.00 | 0.00 | 0.00 | 1022.8 | |
| 20260906112620 | -17 | 326 | 6.4 | 11.3 | 0.00 | 0.00 | 0.00 | 1022.8 | |
| 20260906112615 | -17 | 335 | 6.4 | 11.3 | 0.00 | 0.00 | 0.00 | 1022.8 | |
| 20260906112543 | -17 | 306 | 6.4 | 11.3 | 0.00 | 0.00 | 0.00 | 1022.8 | |
| 20260906112429 | -17 | 306 | 6.4 | 11.3 | 0.00 | 0.00 | 0.00 | 1022.8 | |
| 20260906112012 | -17 | 292 | 4.8 | 11.3 | 0.00 | 0.00 | 0.00 | 1022.8 | |
| 20260906111909 | -17 | 313 | 4.8 | 11.3 | 0.00 | 0.00 | 0.00 | 1022.8 | |
| 20260906111809 | -17 | 311 | 4.8 | 11.3 | 0.00 | 0.00 | 0.00 | 1022.6 | |
| 20260906111710 | -17 | 350 | 6.4 | 11.3 | 0.00 | 0.00 | 0.00 | 1022.6 | |
| 20260906111616 | -17 | 293 | 6.4 | 11.3 | 0.00 | 0.00 | 0.00 | 1022.6 | |
| 20260906111420 | -17 | 305 | 6.4 | 9.7 | 0.00 | 0.00 | 0.00 | 1022.6 | |
| 20260906111106 | -17 | 336 | 4.8 | 9.7 | 0.00 | 0.00 | 0.00 | 1022.6 | |
| 20260906111006 | -17 | 336 | 4.8 | 9.7 | 0.00 | 0.00 | 0.00 | 1022.8 | |
| 20260906110903 | -17 | 333 | 4.8 | 9.7 | 0.00 | 0.00 | 0.00 | 1022.6 | |
| 20260906110804 | -17 | 302 | 4.8 | 9.7 | 0.00 | 0.00 | 0.00 | 1022.6 | |
| 20260906110702 | -17 | 311 | 4.8 | 9.7 | 0.00 | 0.00 | 0.00 | 1022.6 | |
| 20260906110613 | -17 | 322 | 3.2 | 9.7 | 0.00 | 0.00 | 0.00 | 1022.6 | |
| 20260906110602 | -17 | 325 | 3.2 | 9.7 | 0.00 | 0.00 | 0.00 | 1022.6 | |
| 20260906110504 | -17 | 319 | 3.2 | 8.0 | 0.00 | 0.00 | 0.00 | 1022.6 | |
| 20260906110258 | -17 | 344 | 3.2 | 6.4 | 0.00 | 0.00 | 0.00 | 1022.6 | |
| 20260906110156 | -17 | 344 | 3.2 | 8.0 | 0.00 | 0.00 | 0.00 | 1022.6 | |
| 20260906110113 | -17 | 332 | 3.2 | 8.0 | 0.00 | 0.00 | 0.00 | 1022.6 | |
| 20260906110100 | -17 | 332 | 3.2 | 8.0 | 0.00 | 0.00 | 0.00 | 1022.6 | |
| 20260906105851 | -17 | 332 | 3.2 | 8.0 | 0.00 | 0.00 | 0.00 | 1022.6 | |
| 20260906105751 | -17 | 332 | 3.2 | 8.0 | 0.00 | 0.00 | 0.00 | 1022.6 | |
| 20260906105720 | -17 | 332 | 4.8 | 8.0 | 0.00 | 0.00 | 0.00 | 1022.6 | |
| 20260906105550 | 17 | 332 | 4.8 | 8.0 | 0.00 | 0.00 | 0.00 | 73 | 1022.6 |
| 20260906105454 | 17 | 333 | 4.8 | 8.0 | 0.00 | 0.00 | 0.00 | 73 | 1022.5 |
| 20260906105248 | 17 | 335 | 4.8 | 8.0 | 0.00 | 0.00 | 0.00 | 73 | 1022.6 |
| 20260906105148 | 17 | 327 | 4.8 | 8.0 | 0.00 | 0.00 | 0.00 | 73 | 1022.6 |
| 20260906105113 | 17 | 327 | 4.8 | 8.0 | 0.00 | 0.00 | 0.00 | 73 | 1022.6 |
| 20260906105047 | 17 | 306 | 4.8 | 8.0 | 0.00 | 0.00 | 0.00 | 73 | 1022.6 |
| 20260906104946 | 17 | 327 | 4.8 | 9.7 | 0.00 | 0.00 | 0.00 | 73 | 1022.5 |
| 20260906104845 | 17 | 304 | 4.8 | 9.7 | 0.00 | 0.00 | 0.00 | 73 | 1022.5 |
| 20260906104745 | 17 | 346 | 4.8 | 9.7 | 0.00 | 0.00 | 0.00 | 73 | 1022.6 |
| 20260906104645 | 17 | 346 | 4.8 | 12.9 | 0.00 | 0.00 | 0.00 | 73 | 1022.5 |
| 20260906104612 | 17 | 327 | 4.8 | 12.9 | 0.00 | 0.00 | 0.00 | 73 | 1022.5 |
| 20260906104538 | 17 | 0 | 4.8 | 12.9 | 0.00 | 0.00 | 0.00 | 73 | 1022.5 |
| 20260906104438 | 17 | 355 | 6.4 | 12.9 | 0.00 | 0.00 | 0.00 | 73 | 1022.5 |
| 20260906104338 | 17 | 355 | 6.4 | 12.9 | 0.00 | 0.00 | 0.00 | 73 | 1022.5 |
| 20260906104237 | 17 | 355 | 6.4 | 14.5 | 0.00 | 0.00 | 0.00 | 73 | 1022.6 |
| 20260906104217 | 17 | 350 | 6.4 | 14.5 | 0.00 | 0.00 | 0.00 | 73 | 1022.5 |
| 20260906104034 | 17 | 348 | 6.4 | 14.5 | 0.00 | 0.00 | 0.00 | 73 | 1022.5 |
| 20260906103934 | 17 | 355 | 6.4 | 14.5 | 0.00 | 0.00 | 0.00 | 73 | 1022.5 |
| 20260906103833 | 17 | 355 | 8.0 | 16.1 | 0.00 | 0.00 | 0.00 | 73 | 1022.5 |
| 20260906103731 | 17 | 0 | 8.0 | 16.1 | 0.00 | 0.00 | 0.00 | 73 | 1022.5 |
| 20260906103632 | 17 | 5 | 8.0 | 16.1 | 0.00 | 0.00 | 0.00 | 73 | 1022.5 |
| 20260906103611 | 17 | 314 | 8.0 | 16.1 | 0.00 | 0.00 | 0.00 | 73 | 1022.5 |
| 20260906103531 | 17 | 350 | 8.0 | 16.1 | 0.00 | 0.00 | 0.00 | 74 | 1022.5 |
| 20260906103431 | 17 | 350 | 8.0 | 16.1 | 0.00 | 0.00 | 0.00 | 73 | 1022.5 |
| 20260906103326 | 17 | 44 | 8.0 | 16.1 | 0.00 | 0.00 | 0.00 | 73 | 1022.5 |
| 20260906103225 | 17 | 345 | 8.0 | 16.1 | 0.00 | 0.00 | 0.00 | 73 | 1022.5 |
| 20260906103211 | 17 | 348 | 8.0 | 16.1 | 0.00 | 0.00 | 0.00 | 73 | 1022.4 |
| 20260906103026 | 17 | 342 | 8.0 | 16.1 | 0.00 | 0.00 | 0.00 | 73 | 1022.5 |
| 20260906102927 | 17 | 5 | 8.0 | 16.1 | 0.00 | 0.00 | 0.00 | 73 | 1022.4 |
| 20260906102727 | 17 | 355 | 8.0 | 16.1 | 0.00 | 0.00 | 0.00 | 73 | 1022.4 |
| 20260906102558 | 17 | 5 | 8.0 | 16.1 | 0.00 | 0.00 | 0.00 | 73 | 1022.4 |
| 20260906102520 | 17 | 0 | 6.4 | 16.1 | 0.00 | 0.00 | 0.00 | 73 | 1022.5 |
| 20260906102419 | 17 | 0 | 6.4 | 16.1 | 0.00 | 0.00 | 0.00 | 73 | 1022.4 |
| 20260906102314 | 17 | 9 | 6.4 | 14.5 | 0.00 | 0.00 | 0.00 | 72 | 1022.5 |
| 20260906102213 | 17 | 316 | 6.4 | 14.5 | 0.00 | 0.00 | 0.00 | 72 | 1022.4 |
| 20260906102113 | 17 | 0 | 6.4 | 14.5 | 0.00 | 0.00 | 0.00 | 72 | 1022.4 |
| 20260906102053 | 17 | 333 | 6.4 | 14.5 | 0.00 | 0.00 | 0.00 | 72 | 1022.4 |
| 20260906102013 | 17 | 0 | 6.4 | 14.5 | 0.00 | 0.00 | 0.00 | 72 | 1022.5 |
| 20260906101913 | 17 | 5 | 6.4 | 14.5 | 0.00 | 0.00 | 0.00 | 72 | 1022.4 |
| 20260906101809 | 17 | 340 | 6.4 | 14.5 | 0.00 | 0.00 | 0.00 | 71 | 1022.4 |
| 20260906101707 | 17 | 324 | 4.8 | 14.5 | 0.00 | 0.00 | 0.00 | 71 | 1022.4 |
| 20260906101608 | 17 | 344 | 4.8 | 14.5 | 0.00 | 0.00 | 0.00 | 70 | 1022.4 |
| 20260906101547 | 17 | 339 | 4.8 | 14.5 | 0.00 | 0.00 | 0.00 | 70 | 1022.4 |
| 20260906101507 | 17 | 348 | 4.8 | 9.7 | 0.00 | 0.00 | 0.00 | 70 | 1022.4 |
| 20260906101406 | 17 | 313 | 4.8 | 9.7 | 0.00 | 0.00 | 0.00 | 70 | 1022.4 |
| 20260906101303 | 17 | 329 | 4.8 | 9.7 | 0.00 | 0.00 | 0.00 | 69 | 1022.4 |
| 20260906101204 | 17 | 304 | 4.8 | 8.0 | 0.00 | 0.00 | 0.00 | 69 | 1022.4 |
| 20260906101147 | 17 | 333 | 4.8 | 12.9 | 0.00 | 0.00 | 0.00 | 67 | 1022.5 |
| 20260906101003 | 17 | 343 | 4.8 | 12.9 | 0.00 | 0.00 | 0.00 | 67 | 1022.5 |
| 20260906100901 | 17 | 329 | 4.8 | 12.9 | 0.00 | 0.00 | 0.00 | 66 | 1022.5 |
| 20260906100800 | 17 | 320 | 4.8 | 12.9 | 0.00 | 0.00 | 0.00 | 66 | 1022.4 |
| 20260906100659 | 17 | 5 | 4.8 | 12.9 | 0.00 | 0.00 | 0.00 | 65 | 1022.4 |
| 20260906100641 | 17 | 355 | 4.8 | 12.9 | 0.00 | 0.00 | 0.00 | 65 | 1022.4 |
| 20260906100457 | 17 | 355 | 4.8 | 12.9 | 0.00 | 0.00 | 0.00 | 64 | 1022.4 |
| 20260906100355 | 17 | 320 | 4.8 | 12.9 | 0.00 | 0.00 | 0.00 | 63 | 1022.4 |
| 20260906100250 | 17 | 351 | 4.8 | 12.9 | 0.00 | 0.00 | 0.00 | 63 | 1022.4 |
| 20260906100157 | 17 | 348 | 4.8 | 12.9 | 0.00 | 0.00 | 0.00 | 62 | 1022.4 |
| 20260906100029 | 17 | 0 | 4.8 | 9.7 | 0.00 | 0.00 | 0.00 | 61 | 1022.4 |
| 20260906095950 | 17 | 327 | 4.8 | 9.7 | 0.00 | 0.00 | 0.00 | 61 | 1022.4 |
| 20260906095849 | 17 | 348 | 4.8 | 9.7 | 0.00 | 0.00 | 0.00 | 61 | 1022.4 |
| 20260906095745 | 17 | 355 | 4.8 | 9.7 | 0.00 | 0.00 | 0.00 | 61 | 1022.3 |
| 20260906095644 | 17 | 304 | 4.8 | 9.7 | 0.00 | 0.00 | 0.00 | 60 | 1022.4 |
| 20260906095543 | 17 | 355 | 4.8 | 9.7 | 0.00 | 0.00 | 0.00 | 60 | 1022.4 |
| 20260906095522 | 17 | 319 | 4.8 | 9.7 | 0.00 | 0.00 | 0.00 | 60 | 1022.4 |
| 20260906095444 | 17 | 351 | 4.8 | 9.7 | 0.00 | 0.00 | 0.00 | 59 | 1022.4 |
| 20260906095344 | 17 | 13 | 4.8 | 8.0 | 0.00 | 0.00 | 0.00 | 59 | 1022.4 |
| 20260906095137 | 17 | 348 | 3.2 | 8.0 | 0.00 | 0.00 | 0.00 | 59 | 1022.4 |
| 20260906095017 | 17 | 334 | 3.2 | 8.0 | 0.00 | 0.00 | 0.00 | 58 | 1022.4 |
| 20260906094938 | 17 | 334 | 3.2 | 8.0 | 0.00 | 0.00 | 0.00 | 58 | 1022.4 |
| 20260906094837 | 17 | 0 | 3.2 | 8.0 | 0.00 | 0.00 | 0.00 | 58 | 1022.5 |
| 20260906094731 | 17 | 0 | 3.2 | 8.0 | 0.00 | 0.00 | 0.00 | 58 | 1022.5 |
| 20260906094631 | 17 | 0 | 3.2 | 6.4 | 0.00 | 0.00 | 0.00 | 58 | 1022.5 |
| 20260906094532 | 17 | 344 | 3.2 | 6.4 | 0.00 | 0.00 | 0.00 | 57 | 1022.6 |
| 20260906094511 | 17 | 0 | 3.2 | 6.4 | 0.00 | 0.00 | 0.00 | 57 | 1022.6 |
| 20260906094432 | 17 | 342 | 3.2 | 6.4 | 0.00 | 0.00 | 0.00 | 57 | 1022.5 |
| 20260906094331 | 17 | 333 | 3.2 | 6.4 | 0.00 | 0.00 | 0.00 | 57 | 1022.5 |
| 20260906094227 | 17 | 333 | 3.2 | 6.4 | 0.00 | 0.00 | 0.00 | 57 | 1022.5 |
| 20260906094128 | 17 | 333 | 3.2 | 6.4 | 0.00 | 0.00 | 0.00 | 57 | 1022.5 |
| 20260906094027 | 17 | 319 | 3.2 | 6.4 | 0.00 | 0.00 | 0.00 | 57 | 1022.4 |
| 20260906094011 | 17 | 11 | 3.2 | 6.4 | 0.00 | 0.00 | 0.00 | 57 | 1022.4 |
| 20260906093928 | 17 | 11 | 3.2 | 6.4 | 0.00 | 0.00 | 0.00 | 57 | 1022.5 |
| 20260906093825 | 17 | 11 | 3.2 | 4.8 | 0.00 | 0.00 | 0.00 | 57 | 1022.5 |
| 20260906093725 | 17 | 11 | 3.2 | 4.8 | 0.00 | 0.00 | 0.00 | 57 | 1022.5 |
| 20260906093623 | 17 | 11 | 1.6 | 4.8 | 0.00 | 0.00 | 0.00 | 57 | 1022.5 |
| 20260906093509 | 17 | 11 | 1.6 | 4.8 | 0.00 | 0.00 | 0.00 | 57 | 1022.5 |
| 20260906093421 | 17 | 11 | 1.6 | 4.8 | 0.00 | 0.00 | 0.00 | 57 | 1022.5 |
| 20260906093323 | 17 | 11 | 1.6 | 4.8 | 0.00 | 0.00 | 0.00 | 57 | 1022.4 |
| 20260906093113 | 17 | 11 | 1.6 | 4.8 | 0.00 | 0.00 | 0.00 | 57 | 1022.4 |
| 20260906093026 | 17 | 11 | 1.6 | 4.8 | 0.00 | 0.00 | 0.00 | 56 | 1022.4 |
| 20260906092708 | 17 | 11 | 1.6 | 4.8 | 0.00 | 0.00 | 0.00 | 56 | 1022.4 |
| 20260906092607 | 17 | 11 | 1.6 | 4.8 | 0.00 | 0.00 | 0.00 | 56 | 1022.4 |
| 20260906092507 | 17 | 11 | 1.6 | 4.8 | 0.00 | 0.00 | 0.00 | 56 | 1022.4 |
| 20260906092407 | 17 | 11 | 1.6 | 4.8 | 0.00 | 0.00 | 0.00 | 56 | 1022.4 |
| 20260906092307 | 17 | 11 | 1.6 | 3.2 | 0.00 | 0.00 | 0.00 | 55 | 1022.3 |
| 20260906092203 | 17 | 11 | 1.6 | 3.2 | 0.00 | 0.00 | 0.00 | 55 | 1022.3 |
| 20260906092105 | 17 | 11 | 1.6 | 3.2 | 0.00 | 0.00 | 0.00 | 55 | 1022.3 |
| 20260906091901 | 17 | 11 | 1.6 | 4.8 | 0.00 | 0.00 | 0.00 | 54 | 1022.3 |
| 20260906091759 | 18 | 11 | 1.6 | 4.8 | 0.00 | 0.00 | 0.00 | 54 | 1022.3 |
| 20260906091653 | 18 | 11 | 1.6 | 4.8 | 0.00 | 0.00 | 0.00 | 54 | 1022.3 |
| 20260906091553 | 18 | 11 | 1.6 | 4.8 | 0.00 | 0.00 | 0.00 | 54 | 1022.3 |
| 20260906091507 | 18 | 11 | 1.6 | 4.8 | 0.00 | 0.00 | 0.00 | 54 | 1022.3 |
| 20260906091454 | 18 | 11 | 1.6 | 4.8 | 0.00 | 0.00 | 0.00 | 54 | 1022.3 |
| 20260906091353 | 18 | 11 | 1.6 | 4.8 | 0.00 | 0.00 | 0.00 | 54 | 1022.3 |
| 20260906091253 | 18 | 11 | 1.6 | 4.8 | 0.00 | 0.00 | 0.00 | 54 | 1022.4 |
| 20260906091154 | 18 | 11 | 1.6 | 4.8 | 0.00 | 0.00 | 0.00 | 54 | 1022.3 |
| 20260906091052 | 18 | 11 | 1.6 | 4.8 | 0.00 | 0.00 | 0.00 | 54 | 1022.3 |
| 20260906091007 | 18 | 11 | 1.6 | 4.8 | 0.00 | 0.00 | 0.00 | 54 | 1022.3 |
| 20260906090951 | 18 | 11 | 1.6 | 4.8 | 0.00 | 0.00 | 0.00 | 54 | 1022.3 |
| 20260906090854 | 18 | 11 | 1.6 | 4.8 | 0.00 | 0.00 | 0.00 | 54 | 1022.2 |
| 20260906090641 | 18 | 11 | 3.2 | 6.4 | 0.00 | 0.00 | 0.00 | 54 | 1022.2 |
| 20260906090541 | 18 | 11 | 3.2 | 6.4 | 0.00 | 0.00 | 0.00 | 54 | 1022.0 |
| 20260906090506 | 18 | 11 | 3.2 | 6.4 | 0.00 | 0.00 | 0.00 | 54 | 1022.0 |
| 20260906090441 | 18 | 11 | 3.2 | 6.4 | 0.00 | 0.00 | 0.00 | 54 | 1022.0 |
| 20260906090343 | 18 | 11 | 3.2 | 6.4 | 0.00 | 0.00 | 0.00 | 54 | 1022.2 |
| 20260906090241 | 18 | 11 | 3.2 | 8.0 | 0.00 | 0.00 | 0.00 | 54 | 1022.0 |
| 20260906090135 | 18 | 11 | 3.2 | 8.0 | 0.00 | 0.00 | 0.00 | 54 | 1022.0 |
| 20260906090046 | 18 | 11 | 3.2 | 8.0 | 0.00 | 0.00 | 0.00 | 54 | 1022.0 |
| 20260906090039 | 18 | 11 | 3.2 | 8.0 | 0.00 | 0.00 | 0.00 | 53 | 1022.0 |
| 20260906085836 | 18 | 11 | 3.2 | 8.0 | 0.00 | 0.00 | 0.00 | 53 | 1022.2 |
| 20260906085735 | 18 | 336 | 3.2 | 8.0 | 0.00 | 0.00 | 0.00 | 53 | 1022.2 |
| 20260906085630 | 18 | 31 | 3.2 | 8.0 | 0.00 | 0.00 | 0.00 | 53 | 1022.2 |
| 20260906085529 | 18 | 31 | 3.2 | 8.0 | 0.00 | 0.00 | 0.00 | 53 | 1022.2 |
| 20260906085503 | 18 | 31 | 3.2 | 8.0 | 0.00 | 0.00 | 0.00 | 52 | 1022.2 |
| 20260906085430 | 18 | 36 | 3.2 | 8.0 | 0.00 | 0.00 | 0.00 | 52 | 1022.2 |
| 20260906085330 | 18 | 32 | 3.2 | 8.0 | 0.00 | 0.00 | 0.00 | 52 | 1022.2 |
| 20260906085230 | 18 | 28 | 3.2 | 6.4 | 0.00 | 0.00 | 0.00 | 52 | 1022.0 |
| 20260906085214 | 18 | 28 | 3.2 | 6.4 | 0.00 | 0.00 | 0.00 | 52 | 1022.2 |
| 20260906084926 | 19 | 44 | 4.8 | 8.0 | 0.00 | 0.00 | 0.00 | 51 | 1022.2 |
| 20260906084825 | 19 | 63 | 4.8 | 8.0 | 0.00 | 0.00 | 0.00 | 51 | 1022.0 |
| 20260906084723 | 19 | 74 | 4.8 | 8.0 | 0.00 | 0.00 | 0.00 | 50 | 1022.2 |
| 20260906084619 | 19 | 74 | 3.2 | 8.0 | 0.00 | 0.00 | 0.00 | 50 | 1022.0 |
| 20260906084608 | 19 | 74 | 3.2 | 8.0 | 0.00 | 0.00 | 0.00 | 50 | 1022.2 |
| 20260906084418 | 19 | 74 | 3.2 | 8.0 | 0.00 | 0.00 | 0.00 | 50 | 1022.2 |
| 20260906084318 | 19 | 74 | 3.2 | 8.0 | 0.00 | 0.00 | 0.00 | 50 | 1022.2 |
| 20260906084217 | 19 | 62 | 3.2 | 8.0 | 0.00 | 0.00 | 0.00 | 50 | 1022.2 |
| 20260906084111 | 19 | 56 | 1.6 | 8.0 | 0.00 | 0.00 | 0.00 | 50 | 1022.0 |
| 20260906084011 | 19 | 71 | 1.6 | 8.0 | 0.00 | 0.00 | 0.00 | 50 | 1022.2 |
| 20260906084000 | 19 | 60 | 1.6 | 6.4 | 0.00 | 0.00 | 0.00 | 50 | 1022.2 |
| 20260906083911 | 19 | 92 | 1.6 | 6.4 | 0.00 | 0.00 | 0.00 | 50 | 1022.2 |
| 20260906083812 | 19 | 78 | 1.6 | 6.4 | 0.00 | 0.00 | 0.00 | 49 | 1022.0 |
| 20260906083711 | 19 | 350 | 1.6 | 6.4 | 0.00 | 0.00 | 0.00 | 49 | 1021.9 |
| 20260906083612 | 19 | 350 | 1.6 | 6.4 | 0.00 | 0.00 | 0.00 | 49 | 1022.0 |
| 20260906083459 | 20 | 350 | 1.6 | 6.4 | 0.00 | 0.00 | 0.00 | 49 | 1022.0 |
| 20260906083406 | 20 | 350 | 3.2 | 6.4 | 0.00 | 0.00 | 0.00 | 49 | 1022.0 |
| 20260906083303 | 20 | 350 | 3.2 | 6.4 | 0.00 | 0.00 | 0.00 | 49 | 1021.9 |
| 20260906083203 | 20 | 350 | 3.2 | 6.4 | 0.00 | 0.00 | 0.00 | 48 | 1021.9 |
| 20260906083110 | 20 | 350 | 3.2 | 8.0 | 0.00 | 0.00 | 0.00 | 48 | 1021.9 |
| 20260906083103 | 20 | 350 | 4.8 | 9.7 | 0.00 | 0.00 | 0.00 | 48 | 1021.9 |
| 20260906082859 | 20 | 350 | 4.8 | 9.7 | 0.00 | 0.00 | 0.00 | 48 | 1021.9 |
| 20260906082800 | 20 | 349 | 4.8 | 9.7 | 0.00 | 0.00 | 0.00 | 48 | 1021.9 |
| 20260906082657 | 20 | 355 | 4.8 | 9.7 | 0.00 | 0.00 | 0.00 | 48 | 1021.9 |
| 20260906082551 | 20 | 332 | 4.8 | 9.7 | 0.00 | 0.00 | 0.00 | 48 | 1021.9 |
| 20260906082456 | 20 | 355 | 4.8 | 9.7 | 0.00 | 0.00 | 0.00 | 48 | 1021.8 |
| 20260906082451 | 20 | 334 | 4.8 | 9.7 | 0.00 | 0.00 | 0.00 | 48 | 1021.8 |
| 20260906082352 | 20 | 342 | 3.2 | 9.7 | 0.00 | 0.00 | 0.00 | 48 | 1021.8 |
| 20260906082258 | 20 | 327 | 3.2 | 9.7 | 0.00 | 0.00 | 0.00 | 48 | 1021.8 |
| 20260906082051 | 20 | 303 | 3.2 | 8.0 | 0.00 | 0.00 | 0.00 | 48 | 1021.9 |
| 20260906081951 | 20 | 333 | 3.2 | 6.4 | 0.00 | 0.00 | 0.00 | 48 | 1021.8 |
| 20260906081851 | 20 | 333 | 3.2 | 8.0 | 0.00 | 0.00 | 0.00 | 48 | 1021.8 |
| 20260906081756 | 20 | 333 | 3.2 | 8.0 | 0.00 | 0.00 | 0.00 | 48 | 1021.8 |
| 20260906081547 | 20 | 350 | 3.2 | 8.0 | 0.00 | 0.00 | 0.00 | 48 | 1021.8 |
| 20260906081448 | 20 | 350 | 3.2 | 9.7 | 0.00 | 0.00 | 0.00 | 47 | 1021.8 |
| 20260906081347 | 20 | 312 | 4.8 | 9.7 | 0.00 | 0.00 | 0.00 | 47 | 1021.7 |
| 20260906081246 | 20 | 318 | 4.8 | 11.3 | 0.00 | 0.00 | 0.00 | 47 | 1021.7 |
| 20260906081146 | 20 | 343 | 4.8 | 12.9 | 0.00 | 0.00 | 0.00 | 47 | 1021.8 |
| 20260906081046 | 20 | 341 | 6.4 | 12.9 | 0.00 | 0.00 | 0.00 | 47 | 1021.7 |
| 20260906080957 | 20 | 341 | 6.4 | 12.9 | 0.00 | 0.00 | 0.00 | 47 | 1021.7 |
| 20260906080944 | 20 | 326 | 6.4 | 12.9 | 0.00 | 0.00 | 0.00 | 47 | 1021.7 |
| 20260906080841 | 20 | 322 | 6.4 | 12.9 | 0.00 | 0.00 | 0.00 | 47 | 1021.7 |
| 20260906080742 | 20 | 340 | 8.0 | 12.9 | 0.00 | 0.00 | 0.00 | 47 | 1021.7 |
| 20260906080642 | 20 | 319 | 8.0 | 12.9 | 0.00 | 0.00 | 0.00 | 47 | 1021.7 |
| 20260906080541 | 20 | 334 | 8.0 | 12.9 | 0.00 | 0.00 | 0.00 | 47 | 1021.7 |
| 20260906080457 | 20 | 11 | 8.0 | 12.9 | 0.00 | 0.00 | 0.00 | 47 | 1021.7 |
| 20260906080441 | 20 | 315 | 8.0 | 12.9 | 0.00 | 0.00 | 0.00 | 47 | 1021.7 |
| 20260906080339 | 20 | 331 | 6.4 | 12.9 | 0.00 | 0.00 | 0.00 | 47 | 1021.7 |
| 20260906080239 | 20 | 331 | 6.4 | 12.9 | 0.00 | 0.00 | 0.00 | 47 | 1021.6 |
| 20260906080139 | 20 | 312 | 6.4 | 12.9 | 0.00 | 0.00 | 0.00 | 47 | 1021.6 |
| 20260906080037 | 20 | 334 | 6.4 | 12.9 | 0.00 | 0.00 | 0.00 | 47 | 1021.6 |
| 20260906075958 | 20 | 313 | 6.4 | 12.9 | 0.00 | 0.00 | 0.00 | 47 | 1021.6 |
| 20260906075938 | 20 | 335 | 4.8 | 12.9 | 0.00 | 0.00 | 0.00 | 47 | 1021.7 |
| 20260906075837 | 20 | 355 | 4.8 | 12.9 | 0.00 | 0.00 | 0.00 | 47 | 1021.7 |
| 20260906075737 | 20 | 307 | 4.8 | 12.9 | 0.00 | 0.00 | 0.00 | 47 | 1021.7 |
| 20260906075637 | 20 | 300 | 4.8 | 12.9 | 0.00 | 0.00 | 0.00 | 47 | 1021.7 |
| 20260906075538 | 20 | 293 | 4.8 | 12.9 | 0.00 | 0.00 | 0.00 | 47 | 1021.7 |
| 20260906075454 | 20 | 300 | 4.8 | 12.9 | 0.00 | 0.00 | 0.00 | 47 | 1021.7 |
| 20260906075438 | 20 | 328 | 4.8 | 12.9 | 0.00 | 0.00 | 0.00 | 47 | 1021.7 |
| 20260906075337 | 20 | 286 | 4.8 | 16.1 | 0.00 | 0.00 | 0.00 | 47 | 1021.7 |
| 20260906075244 | 21 | 347 | 4.8 | 16.1 | 0.00 | 0.00 | 0.00 | 48 | 1021.7 |
| 20260906075037 | 21 | 329 | 4.8 | 16.1 | 0.00 | 0.00 | 0.00 | 48 | 1021.6 |
| 20260906074953 | 21 | 311 | 4.8 | 16.1 | 0.00 | 0.00 | 0.00 | 48 | 1021.6 |
| 20260906074937 | 21 | 340 | 6.4 | 16.1 | 0.00 | 0.00 | 0.00 | 48 | 1021.7 |
| 20260906074836 | 21 | 323 | 6.4 | 16.1 | 0.00 | 0.00 | 0.00 | 47 | 1021.7 |
| 20260906074737 | 21 | 306 | 6.4 | 16.1 | 0.00 | 0.00 | 0.00 | 47 | 1021.6 |
| 20260906074707 | 21 | 280 | 6.4 | 16.1 | 0.00 | 0.00 | 0.00 | 47 | 1021.6 |
| 20260906074431 | 21 | 342 | 6.4 | 16.1 | 0.00 | 0.00 | 0.00 | 47 | 1021.7 |
| 20260906074331 | 21 | 322 | 8.0 | 14.5 | 0.00 | 0.00 | 0.00 | 47 | 1021.7 |
| 20260906074231 | 21 | 17 | 8.0 | 16.1 | 0.00 | 0.00 | 0.00 | 47 | 1021.7 |
| 20260906074127 | 21 | 20 | 8.0 | 16.1 | 0.00 | 0.00 | 0.00 | 47 | 1021.7 |
| 20260906074100 | 21 | 11 | 8.0 | 16.1 | 0.00 | 0.00 | 0.00 | 47 | 1021.7 |
| 20260906073925 | 21 | 341 | 9.7 | 16.1 | 0.00 | 0.00 | 0.00 | 47 | 1021.6 |
| 20260906073830 | 21 | 331 | 9.7 | 16.1 | 0.00 | 0.00 | 0.00 | 47 | 1021.7 |
| 20260906073629 | 21 | 294 | 9.7 | 16.1 | 0.00 | 0.00 | 0.00 | 47 | 1021.6 |
| 20260906073451 | 21 | 318 | 8.0 | 16.1 | 0.00 | 0.00 | 0.00 | 47 | 1021.6 |
| 20260906073423 | 21 | 297 | 8.0 | 16.1 | 0.00 | 0.00 | 0.00 | 47 | 1021.6 |
| 20260906073323 | 21 | 311 | 8.0 | 16.1 | 0.00 | 0.00 | 0.00 | 47 | 1021.6 |
| 20260906073223 | 21 | 300 | 8.0 | 12.9 | 0.00 | 0.00 | 0.00 | 47 | 1021.7 |
| 20260906073123 | 21 | 306 | 8.0 | 12.9 | 0.00 | 0.00 | 0.00 | 47 | 1021.6 |
| 20260906073024 | 21 | 313 | 8.0 | 12.9 | 0.00 | 0.00 | 0.00 | 47 | 1021.6 |
| 20260906072950 | 21 | 301 | 8.0 | 12.9 | 0.00 | 0.00 | 0.00 | 47 | 1021.6 |
| 20260906072923 | 21 | 300 | 6.4 | 12.9 | 0.00 | 0.00 | 0.00 | 47 | 1021.6 |
| 20260906072823 | 21 | 317 | 6.4 | 12.9 | 0.00 | 0.00 | 0.00 | 47 | 1021.6 |
| 20260906072723 | 21 | 313 | 6.4 | 12.9 | 0.00 | 0.00 | 0.00 | 48 | 1021.6 |
| 20260906072624 | 21 | 277 | 6.4 | 12.9 | 0.00 | 0.00 | 0.00 | 48 | 1021.6 |
| 20260906072558 | 21 | 317 | 6.4 | 11.3 | 0.00 | 0.00 | 0.00 | 49 | 1021.6 |
| 20260906072423 | 21 | 309 | 6.4 | 11.3 | 0.00 | 0.00 | 0.00 | 49 | 1021.7 |
| 20260906072323 | 21 | 310 | 6.4 | 11.3 | 0.00 | 0.00 | 0.00 | 49 | 1021.7 |
| 20260906072223 | 21 | 288 | 6.4 | 11.3 | 0.00 | 0.00 | 0.00 | 49 | 1021.7 |
| 20260906072141 | 21 | 333 | 6.4 | 11.3 | 0.00 | 0.00 | 0.00 | 49 | 1021.7 |
| 20260906072134 | 21 | 308 | 6.4 | 11.3 | 0.00 | 0.00 | 0.00 | 49 | 1021.7 |
| 20260906071828 | 21 | 319 | 6.4 | 11.3 | 0.00 | 0.00 | 0.00 | 49 | 1021.7 |
| 20260906071621 | 21 | 272 | 6.4 | 11.3 | 0.00 | 0.00 | 0.00 | 50 | 1021.6 |
| 20260906071557 | 21 | 278 | 6.4 | 11.3 | 0.00 | 0.00 | 0.00 | 50 | 1021.6 |
| 20260906071421 | 21 | 266 | 4.8 | 11.3 | 0.00 | 0.00 | 0.00 | 51 | 1021.6 |
| 20260906071322 | 21 | 288 | 4.8 | 11.3 | 0.00 | 0.00 | 0.00 | 51 | 1021.6 |
| 20260906071115 | 21 | 282 | 4.8 | 11.3 | 0.00 | 0.00 | 0.00 | 51 | 1021.7 |
| 20260906071015 | 21 | 284 | 4.8 | 11.3 | 0.00 | 0.00 | 0.00 | 50 | 1021.6 |
| 20260906070948 | 21 | 298 | 4.8 | 11.3 | 0.00 | 0.00 | 0.00 | 50 | 1021.6 |
| 20260906070922 | 21 | 317 | 4.8 | 11.3 | 0.00 | 0.00 | 0.00 | 50 | 1021.6 |
| 20260906070716 | 21 | 291 | 4.8 | 9.7 | 0.00 | 0.00 | 0.00 | 49 | 1021.7 |
| 20260906070616 | 21 | 314 | 4.8 | 9.7 | 0.00 | 0.00 | 0.00 | 49 | 1021.7 |
| 20260906070516 | 21 | 299 | 4.8 | 9.7 | 0.00 | 0.00 | 0.00 | 49 | 1021.7 |
| 20260906070447 | 21 | 321 | 4.8 | 9.7 | 0.00 | 0.00 | 0.00 | 49 | 1021.7 |
| 20260906070415 | 21 | 311 | 4.8 | 9.7 | 0.00 | 0.00 | 0.00 | 49 | 1021.6 |
| 20260906070313 | 21 | 274 | 4.8 | 9.7 | 0.00 | 0.00 | 0.00 | 49 | 1021.6 |
| 20260906070213 | 21 | 305 | 4.8 | 11.3 | 0.00 | 0.00 | 0.00 | 49 | 1021.6 |
| 20260906070113 | 21 | 271 | 6.4 | 11.3 | 0.00 | 0.00 | 0.00 | 49 | 1021.6 |
| 20260906070029 | 21 | 296 | 6.4 | 11.3 | 0.00 | 0.00 | 0.00 | 49 | 1021.7 |
| 20260906070023 | 21 | 296 | 6.4 | 11.3 | 0.00 | 0.00 | 0.00 | 49 | 1021.7 |
| 20260906065711 | 21 | 292 | 6.4 | 11.3 | 0.00 | 0.00 | 0.00 | 50 | 1021.7 |
| 20260906065611 | 21 | 293 | 6.4 | 11.3 | 0.00 | 0.00 | 0.00 | 50 | 1021.7 |
| 20260906065511 | 21 | 297 | 6.4 | 11.3 | 0.00 | 0.00 | 0.00 | 50 | 1021.7 |
| 20260906065446 | 21 | 313 | 6.4 | 11.3 | 0.00 | 0.00 | 0.00 | 50 | 1021.7 |
| 20260906065411 | 21 | 290 | 8.0 | 11.3 | 0.00 | 0.00 | 0.00 | 50 | 1021.7 |
| 20260906065311 | 21 | 300 | 6.4 | 11.3 | 0.00 | 0.00 | 0.00 | 50 | 1021.7 |
| 20260906065211 | 21 | 292 | 6.4 | 11.3 | 0.00 | 0.00 | 0.00 | 51 | 1021.8 |
| 20260906065111 | 21 | 292 | 6.4 | 11.3 | 0.00 | 0.00 | 0.00 | 51 | 1021.8 |
| 20260906065011 | 21 | 284 | 6.4 | 11.3 | 0.00 | 0.00 | 0.00 | 51 | 1021.8 |
| 20260906064945 | 21 | 308 | 6.4 | 11.3 | 0.00 | 0.00 | 0.00 | 51 | 1021.8 |
| 20260906064911 | 21 | 287 | 6.4 | 11.3 | 0.00 | 0.00 | 0.00 | 52 | 1021.7 |
| 20260906064811 | 20 | 274 | 6.4 | 11.3 | 0.00 | 0.00 | 0.00 | 51 | 1021.8 |
| 20260906064711 | 20 | 278 | 6.4 | 11.3 | 0.00 | 0.00 | 0.00 | 52 | 1021.8 |
| 20260906064657 | 20 | 294 | 4.8 | 11.3 | 0.00 | 0.00 | 0.00 | 51 | 1021.8 |
| 20260906064418 | 20 | 286 | 4.8 | 9.7 | 0.00 | 0.00 | 0.00 | 51 | 1021.8 |
| 20260906064211 | 20 | 294 | 4.8 | 9.7 | 0.00 | 0.00 | 0.00 | 51 | 1021.8 |
| 20260906064111 | 20 | 306 | 4.8 | 9.7 | 0.00 | 0.00 | 0.00 | 52 | 1021.7 |
| 20260906064011 | 20 | 294 | 3.2 | 9.7 | 0.00 | 0.00 | 0.00 | 52 | 1021.8 |
| 20260906063945 | 20 | 282 | 3.2 | 9.7 | 0.00 | 0.00 | 0.00 | 52 | 1021.8 |
| 20260906063911 | 20 | 285 | 3.2 | 9.7 | 0.00 | 0.00 | 0.00 | 52 | 1021.8 |
| 20260906063810 | 20 | 300 | 3.2 | 8.0 | 0.00 | 0.00 | 0.00 | 53 | 1021.9 |
| 20260906063709 | 20 | 288 | 3.2 | 8.0 | 0.00 | 0.00 | 0.00 | 53 | 1021.8 |
| 20260906063658 | 20 | 287 | 3.2 | 6.4 | 0.00 | 0.00 | 0.00 | 53 | 1021.9 |
| 20260906063409 | 20 | 276 | 1.6 | 6.4 | 0.00 | 0.00 | 0.00 | 53 | 1021.9 |
| 20260906063320 | 20 | 288 | 3.2 | 6.4 | 0.00 | 0.00 | 0.00 | 53 | 1021.9 |
| 20260906063007 | 20 | 266 | 3.2 | 9.7 | 0.00 | 0.00 | 0.00 | 52 | 1021.9 |
| 20260906062945 | 20 | 266 | 3.2 | 9.7 | 0.00 | 0.00 | 0.00 | 52 | 1021.9 |
| 20260906062903 | 20 | 266 | 3.2 | 9.7 | 0.00 | 0.00 | 0.00 | 52 | 1021.9 |
| 20260906062803 | 20 | 266 | 3.2 | 9.7 | 0.00 | 0.00 | 0.00 | 52 | 1022.0 |
| 20260906062703 | 20 | 265 | 3.2 | 9.7 | 0.00 | 0.00 | 0.00 | 52 | 1021.9 |
| 20260906062603 | 20 | 263 | 4.8 | 9.7 | 0.00 | 0.00 | 0.00 | 53 | 1022.0 |
| 20260906062503 | 20 | 257 | 4.8 | 9.7 | 0.00 | 0.00 | 0.00 | 53 | 1022.0 |
| 20260906062445 | 20 | 257 | 4.8 | 9.7 | 0.00 | 0.00 | 0.00 | 53 | 1022.0 |
| 20260906062402 | 20 | 277 | 4.8 | 9.7 | 0.00 | 0.00 | 0.00 | 53 | 1022.0 |
| 20260906062306 | 21 | 265 | 4.8 | 9.7 | 0.00 | 0.00 | 0.00 | 53 | 1021.9 |
| 20260906062203 | 21 | 281 | 4.8 | 9.7 | 0.00 | 0.00 | 0.00 | 54 | 1021.9 |
| 20260906062102 | 21 | 267 | 4.8 | 9.7 | 0.00 | 0.00 | 0.00 | 54 | 1022.0 |
| 20260906062014 | 21 | 257 | 4.8 | 8.0 | 0.00 | 0.00 | 0.00 | 53 | 1022.0 |
| 20260906062007 | 21 | 257 | 4.8 | 8.0 | 0.00 | 0.00 | 0.00 | 53 | 1022.0 |
| 20260906061803 | 21 | 257 | 4.8 | 8.0 | 0.00 | 0.00 | 0.00 | 53 | 1022.0 |
| 20260906061703 | 21 | 249 | 4.8 | 9.7 | 0.00 | 0.00 | 0.00 | 53 | 1021.9 |
| 20260906061603 | 21 | 230 | 4.8 | 9.7 | 0.00 | 0.00 | 0.00 | 53 | 1021.9 |
| 20260906061503 | 21 | 246 | 4.8 | 9.7 | 0.00 | 0.00 | 0.00 | 53 | 1022.0 |
| 20260906061446 | 21 | 246 | 4.8 | 9.7 | 0.00 | 0.00 | 0.00 | 53 | 1022.0 |
| 20260906061403 | 21 | 268 | 4.8 | 9.7 | 0.00 | 0.00 | 0.00 | 53 | 1021.9 |
| 20260906061303 | 21 | 239 | 4.8 | 11.3 | 0.00 | 0.00 | 0.00 | 53 | 1021.9 |
| 20260906061210 | 21 | 261 | 4.8 | 11.3 | 0.00 | 0.00 | 0.00 | 54 | 1021.9 |
| 20260906060959 | 21 | 221 | 4.8 | 11.3 | 0.00 | 0.00 | 0.00 | 54 | 1021.9 |
| 20260906060945 | 21 | 242 | 4.8 | 11.3 | 0.00 | 0.00 | 0.00 | 54 | 1021.9 |
| 20260906060859 | 21 | 222 | 4.8 | 11.3 | 0.00 | 0.00 | 0.00 | 54 | 1021.9 |
| 20260906060759 | 21 | 238 | 4.8 | 11.3 | 0.00 | 0.00 | 0.00 | 54 | 1021.9 |
| 20260906060659 | 21 | 204 | 4.8 | 11.3 | 0.00 | 0.00 | 0.00 | 54 | 1022.0 |
| 20260906060559 | 21 | 245 | 4.8 | 11.3 | 0.00 | 0.00 | 0.00 | 54 | 1022.0 |
| 20260906060459 | 21 | 250 | 4.8 | 11.3 | 0.00 | 0.00 | 0.00 | 54 | 1021.9 |
| 20260906060445 | 21 | 234 | 4.8 | 11.3 | 0.00 | 0.00 | 0.00 | 54 | 1021.9 |
| 20260906060359 | 21 | 248 | 4.8 | 11.3 | 0.00 | 0.00 | 0.00 | 53 | 1021.9 |
| 20260906060300 | 21 | 264 | 4.8 | 11.3 | 0.00 | 0.00 | 0.00 | 53 | 1022.0 |
| 20260906060159 | 21 | 244 | 4.8 | 12.9 | 0.00 | 0.00 | 0.00 | 54 | 1022.0 |
| 20260906060059 | 21 | 253 | 4.8 | 16.1 | 0.00 | 0.00 | 0.00 | 54 | 1021.9 |
| 20260906055945 | 21 | 228 | 6.4 | 16.1 | 0.00 | 0.00 | 0.00 | 53 | 1022.0 |
| 20260906055857 | 21 | 209 | 6.4 | 16.1 | 0.00 | 0.00 | 0.00 | 53 | 1022.0 |
| 20260906055753 | 21 | 246 | 6.4 | 16.1 | 0.00 | 0.00 | 0.00 | 53 | 1021.9 |
| 20260906055658 | 21 | 246 | 6.4 | 16.1 | 0.00 | 0.00 | 0.00 | 53 | 1021.9 |
| 20260906055451 | 21 | 215 | 6.4 | 16.1 | 0.00 | 0.00 | 0.00 | 54 | 1022.0 |
| 20260906055444 | 21 | 234 | 6.4 | 16.1 | 0.00 | 0.00 | 0.00 | 54 | 1022.0 |
| 20260906055351 | 21 | 204 | 4.8 | 16.1 | 0.00 | 0.00 | 0.00 | 53 | 1022.0 |
| 20260906055247 | 21 | 261 | 4.8 | 16.1 | 0.00 | 0.00 | 0.00 | 54 | 1022.0 |
| 20260906055148 | 21 | 236 | 3.2 | 16.1 | 0.00 | 0.00 | 0.00 | 54 | 1022.0 |
| 20260906055047 | 21 | 242 | 3.2 | 16.1 | 0.00 | 0.00 | 0.00 | 53 | 1022.0 |
| 20260906054947 | 21 | 220 | 3.2 | 16.1 | 0.00 | 0.00 | 0.00 | 51 | 1022.0 |
| 20260906054845 | 21 | 232 | 3.2 | 9.7 | 0.00 | 0.00 | 0.00 | 51 | 1021.9 |
| 20260906054744 | 22 | 233 | 3.2 | 11.3 | 0.00 | 0.00 | 0.00 | 51 | 1021.9 |
| 20260906054644 | 22 | 275 | 3.2 | 11.3 | 0.00 | 0.00 | 0.00 | 51 | 1021.8 |
| 20260906054544 | 22 | 275 | 3.2 | 11.3 | 0.00 | 0.00 | 0.00 | 51 | 1021.8 |
| 20260906054441 | 22 | 275 | 3.2 | 11.3 | 0.00 | 0.00 | 0.00 | 51 | 1021.8 |
| 20260906054339 | 22 | 275 | 4.8 | 11.3 | 0.00 | 0.00 | 0.00 | 51 | 1021.8 |
| 20260906054239 | 22 | 275 | 4.8 | 11.3 | 0.00 | 0.00 | 0.00 | 51 | 1021.8 |
| 20260906054140 | 22 | 275 | 4.8 | 11.3 | 0.00 | 0.00 | 0.00 | 51 | 1021.8 |
| 20260906054051 | 22 | 275 | 4.8 | 11.3 | 0.00 | 0.00 | 0.00 | 52 | 1021.8 |
| 20260906053940 | 22 | 252 | 4.8 | 11.3 | 0.00 | 0.00 | 0.00 | 52 | 1021.8 |
| 20260906053846 | 22 | 244 | 4.8 | 9.7 | 0.00 | 0.00 | 0.00 | 51 | 1021.9 |
| 20260906053640 | 22 | 267 | 4.8 | 9.7 | 0.00 | 0.00 | 0.00 | 49 | 1021.8 |
| 20260906053539 | 22 | 321 | 6.4 | 14.5 | 0.00 | 0.00 | 0.00 | 49 | 1021.8 |
| 20260906053444 | 22 | 290 | 6.4 | 14.5 | 0.00 | 0.00 | 0.00 | 49 | 1021.8 |
| 20260906053440 | 22 | 295 | 6.4 | 14.5 | 0.00 | 0.00 | 0.00 | 49 | 1021.7 |
| 20260906053338 | 22 | 327 | 6.4 | 14.5 | 0.00 | 0.00 | 0.00 | 50 | 1021.7 |
| 20260906053238 | 22 | 340 | 8.0 | 14.5 | 0.00 | 0.00 | 0.00 | 50 | 1021.7 |
| 20260906053135 | 22 | 350 | 8.0 | 14.5 | 0.00 | 0.00 | 0.00 | 50 | 1021.7 |
| 20260906053046 | 22 | 337 | 8.0 | 14.5 | 0.00 | 0.00 | 0.00 | 50 | 1021.7 |
| 20260906053039 | 22 | 350 | 8.0 | 14.5 | 0.00 | 0.00 | 0.00 | 49 | 1021.7 |
| 20260906052835 | 22 | 355 | 8.0 | 14.5 | 0.00 | 0.00 | 0.00 | 49 | 1021.8 |
| 20260906052736 | 22 | 339 | 8.0 | 14.5 | 0.00 | 0.00 | 0.00 | 49 | 1021.8 |
| 20260906052635 | 22 | 323 | 8.0 | 14.5 | 0.00 | 0.00 | 0.00 | 48 | 1021.9 |
| 20260906052441 | 22 | 297 | 8.0 | 14.5 | 0.00 | 0.00 | 0.00 | 47 | 1022.0 |
| 20260906052429 | 22 | 303 | 6.4 | 14.5 | 0.00 | 0.00 | 0.00 | 47 | 1022.0 |
| 20260906052329 | 22 | 336 | 6.4 | 14.5 | 0.00 | 0.00 | 0.00 | 48 | 1022.2 |
| 20260906052229 | 22 | 305 | 4.8 | 14.5 | 0.00 | 0.00 | 0.00 | 48 | 1022.3 |
| 20260906052129 | 22 | 311 | 4.8 | 14.5 | 0.00 | 0.00 | 0.00 | 48 | 1022.3 |
| 20260906052029 | 22 | 292 | 4.8 | 12.9 | 0.00 | 0.00 | 0.00 | 48 | 1022.4 |
| 20260906051941 | 22 | 300 | 4.8 | 11.3 | 0.00 | 0.00 | 0.00 | 49 | 1022.4 |
| 20260906051929 | 22 | 293 | 4.8 | 11.3 | 0.00 | 0.00 | 0.00 | 49 | 1022.4 |
| 20260906051829 | 22 | 313 | 3.2 | 11.3 | 0.00 | 0.00 | 0.00 | 48 | 1022.4 |
| 20260906051729 | 22 | 281 | 3.2 | 11.3 | 0.00 | 0.00 | 0.00 | 49 | 1022.5 |
| 20260906051629 | 22 | 279 | 3.2 | 11.3 | 0.00 | 0.00 | 0.00 | 49 | 1022.6 |
| 20260906051529 | 22 | 254 | 3.2 | 11.3 | 0.00 | 0.00 | 0.00 | 50 | 1022.6 |
| 20260906051436 | 22 | 292 | 3.2 | 11.3 | 0.00 | 0.00 | 0.00 | 48 | 1022.8 |
| 20260906051228 | 22 | 256 | 4.8 | 16.1 | 0.00 | 0.00 | 0.00 | 47 | 1022.8 |
| 20260906051125 | 22 | 256 | 4.8 | 16.1 | 0.00 | 0.00 | 0.00 | 47 | 1022.8 |
| 20260906051038 | 22 | 240 | 4.8 | 16.1 | 0.00 | 0.00 | 0.00 | 46 | 1022.8 |
| 20260906050923 | 22 | 240 | 4.8 | 16.1 | 0.00 | 0.00 | 0.00 | 45 | 1022.8 |
| 20260906050823 | 22 | 259 | 4.8 | 16.1 | 0.00 | 0.00 | 0.00 | 45 | 1022.8 |
| 20260906050723 | 22 | 209 | 4.8 | 16.1 | 0.00 | 0.00 | 0.00 | 44 | 1022.9 |
| 20260906050623 | 22 | 209 | 4.8 | 16.1 | 0.00 | 0.00 | 0.00 | 46 | 1022.9 |
| 20260906050524 | 22 | 196 | 4.8 | 16.1 | 0.00 | 0.00 | 0.00 | 47 | 1022.9 |
| 20260906050431 | 22 | 197 | 4.8 | 16.1 | 0.00 | 0.00 | 0.00 | 47 | 1022.9 |
| 20260906050423 | 22 | 196 | 4.8 | 16.1 | 0.00 | 0.00 | 0.00 | 47 | 1022.9 |
| 20260906050319 | 22 | 194 | 4.8 | 16.1 | 0.00 | 0.00 | 0.00 | 47 | 1023.0 |
| 20260906050217 | 22 | 187 | 4.8 | 12.9 | 0.00 | 0.00 | 0.00 | 48 | 1022.9 |
| 20260906050118 | 22 | 176 | 4.8 | 12.9 | 0.00 | 0.00 | 0.00 | 46 | 1023.0 |
| 20260906050017 | 22 | 184 | 4.8 | 12.9 | 0.00 | 0.00 | 0.00 | 45 | 1022.9 |
| 20260906045930 | 22 | 159 | 4.8 | 11.3 | 0.00 | 0.00 | 0.00 | 45 | 1022.9 |
| 20260906045917 | 22 | 146 | 4.8 | 9.7 | 0.00 | 0.00 | 0.00 | 44 | 1022.9 |
| 20260906045817 | 22 | 146 | 4.8 | 11.3 | 0.00 | 0.00 | 0.00 | 44 | 1022.9 |
| 20260906045717 | 22 | 138 | 4.8 | 11.3 | 0.00 | 0.00 | 0.00 | 43 | 1022.9 |
| 20260906045617 | 22 | 121 | 4.8 | 11.3 | 0.00 | 0.00 | 0.00 | 43 | 1022.9 |
| 20260906045516 | 23 | 114 | 6.4 | 14.5 | 0.00 | 0.00 | 0.00 | 42 | 1022.9 |
| 20260906045416 | 23 | 98 | 6.4 | 14.5 | 0.00 | 0.00 | 0.00 | 41 | 1022.9 |
| 20260906045315 | 23 | 111 | 6.4 | 14.5 | 0.00 | 0.00 | 0.00 | 41 | 1022.8 |
| 20260906045215 | 23 | 119 | 6.4 | 14.5 | 0.00 | 0.00 | 0.00 | 41 | 1022.9 |
| 20260906045115 | 23 | 118 | 6.4 | 14.5 | 0.00 | 0.00 | 0.00 | 41 | 1022.9 |
| 20260906045013 | 23 | 116 | 6.4 | 14.5 | 0.00 | 0.00 | 0.00 | 41 | 1022.9 |
| 20260906044928 | 23 | 106 | 6.4 | 14.5 | 0.00 | 0.00 | 0.00 | 41 | 1022.9 |
| 20260906044913 | 23 | 117 | 6.4 | 14.5 | 0.00 | 0.00 | 0.00 | 41 | 1022.9 |
| 20260906044820 | 23 | 119 | 6.4 | 14.5 | 0.00 | 0.00 | 0.00 | 41 | 1022.9 |
| 20260906044613 | 23 | 164 | 6.4 | 14.5 | 0.00 | 0.00 | 0.00 | 41 | 1022.9 |
| 20260906044525 | 23 | 144 | 6.4 | 14.5 | 0.00 | 0.00 | 0.00 | 41 | 1022.9 |
| 20260906044518 | 23 | 113 | 6.4 | 14.5 | 0.00 | 0.00 | 0.00 | 41 | 1022.8 |
| 20260906044313 | 23 | 140 | 6.4 | 14.5 | 0.00 | 0.00 | 0.00 | 40 | 1022.8 |
| 20260906044225 | 23 | 120 | 6.4 | 14.5 | 0.00 | 0.00 | 0.00 | 40 | 1022.8 |
| 20260906043911 | 23 | 113 | 4.8 | 11.3 | 0.00 | 0.00 | 0.00 | 39 | 1022.5 |
| 20260906043811 | 23 | 101 | 4.8 | 11.3 | 0.00 | 0.00 | 0.00 | 39 | 1022.4 |
| 20260906043709 | 23 | 78 | 3.2 | 11.3 | 0.00 | 0.00 | 0.00 | 39 | 1022.4 |
| 20260906043610 | 22 | 87 | 3.2 | 9.7 | 0.00 | 0.00 | 0.00 | 40 | 1022.4 |
| 20260906043520 | 22 | 94 | 3.2 | 9.7 | 0.00 | 0.00 | 0.00 | 40 | 1022.4 |
| 20260906043513 | 22 | 68 | 3.2 | 8.0 | 0.00 | 0.00 | 0.00 | 40 | 1022.3 |
| 20260906043309 | 22 | 78 | 1.6 | 6.4 | 0.00 | 0.00 | 0.00 | 39 | 1022.3 |
| 20260906043209 | 22 | 51 | 1.6 | 6.4 | 0.00 | 0.00 | 0.00 | 40 | 1022.3 |
| 20260906043107 | 22 | 51 | 1.6 | 6.4 | 0.00 | 0.00 | 0.00 | 40 | 1022.2 |
| 20260906043034 | 22 | 51 | 1.6 | 6.4 | 0.00 | 0.00 | 0.00 | 40 | 1022.0 |
| 20260906042907 | 22 | 51 | 1.6 | 6.4 | 0.00 | 0.00 | 0.00 | 40 | 1022.0 |
| 20260906042813 | 22 | 51 | 3.2 | 6.4 | 0.00 | 0.00 | 0.00 | 39 | 1022.0 |
| 20260906042605 | 22 | 51 | 1.6 | 6.4 | 0.00 | 0.00 | 0.00 | 39 | 1021.9 |
| 20260906042506 | 22 | 50 | 1.6 | 6.4 | 0.00 | 0.00 | 0.00 | 39 | 1021.9 |
| 20260906042406 | 22 | 5 | 1.6 | 6.4 | 0.00 | 0.00 | 0.00 | 39 | 1021.9 |
| 20260906042307 | 22 | 5 | 1.6 | 6.4 | 0.00 | 0.00 | 0.00 | 39 | 1021.9 |
| 20260906042205 | 22 | 5 | 1.6 | 6.4 | 0.00 | 0.00 | 0.00 | 39 | 1021.9 |
| 20260906042105 | 22 | 5 | 1.6 | 6.4 | 0.00 | 0.00 | 0.00 | 40 | 1021.9 |
| 20260906042021 | 22 | 5 | 1.6 | 6.4 | 0.00 | 0.00 | 0.00 | 39 | 1021.9 |
| 20260906042015 | 22 | 5 | 1.6 | 6.4 | 0.00 | 0.00 | 0.00 | 39 | 1021.9 |
| 20260906041703 | 22 | 5 | 3.2 | 6.4 | 0.00 | 0.00 | 0.00 | 40 | 1021.9 |
| 20260906041603 | 22 | 5 | 3.2 | 6.4 | 0.00 | 0.00 | 0.00 | 40 | 1021.9 |
| 20260906041514 | 22 | 5 | 3.2 | 6.4 | 0.00 | 0.00 | 0.00 | 39 | 1021.9 |
| 20260906041507 | 22 | 28 | 3.2 | 6.4 | 0.00 | 0.00 | 0.00 | 39 | 1021.9 |
| 20260906041310 | 22 | 28 | 3.2 | 11.3 | 0.00 | 0.00 | 0.00 | 39 | 1021.9 |
| 20260906041104 | 22 | 34 | 4.8 | 11.3 | 0.00 | 0.00 | 0.00 | 39 | 1021.9 |
| 20260906041000 | 22 | 36 | 4.8 | 11.3 | 0.00 | 0.00 | 0.00 | 39 | 1021.9 |
| 20260906040925 | 22 | 35 | 4.8 | 11.3 | 0.00 | 0.00 | 0.00 | 39 | 1021.9 |
| 20260906040900 | 23 | 5 | 4.8 | 11.3 | 0.00 | 0.00 | 0.00 | 39 | 1021.9 |
| 20260906040759 | 23 | 0 | 4.8 | 11.3 | 0.00 | 0.00 | 0.00 | 39 | 1021.9 |
| 20260906040659 | 22 | 355 | 4.8 | 11.3 | 0.00 | 0.00 | 0.00 | 39 | 1021.9 |
| 20260906040559 | 22 | 341 | 4.8 | 11.3 | 0.00 | 0.00 | 0.00 | 39 | 1022.0 |
| 20260906040500 | 22 | 341 | 3.2 | 11.3 | 0.00 | 0.00 | 0.00 | 39 | 1022.0 |
| 20260906040425 | 23 | 341 | 3.2 | 11.3 | 0.00 | 0.00 | 0.00 | 39 | 1022.2 |
| 20260906040359 | 22 | 341 | 3.2 | 11.3 | 0.00 | 0.00 | 0.00 | 39 | 1022.2 |
| 20260906040259 | 22 | 300 | 3.2 | 11.3 | 0.00 | 0.00 | 0.00 | 40 | 1022.2 |
| 20260906040159 | 22 | 308 | 3.2 | 6.4 | 0.00 | 0.00 | 0.00 | 40 | 1022.0 |
| 20260906040059 | 22 | 311 | 1.6 | 6.4 | 0.00 | 0.00 | 0.00 | 40 | 1021.9 |
| 20260906035959 | 23 | 311 | 1.6 | 6.4 | 0.00 | 0.00 | 0.00 | 40 | 1021.9 |
| 20260906035924 | 23 | 311 | 1.6 | 6.4 | 0.00 | 0.00 | 0.00 | 41 | 1021.9 |
| 20260906035859 | 23 | 311 | 1.6 | 6.4 | 0.00 | 0.00 | 0.00 | 41 | 1021.9 |
| 20260906035759 | 23 | 311 | 1.6 | 6.4 | 0.00 | 0.00 | 0.00 | 40 | 1021.8 |
| 20260906035706 | 23 | 66 | 1.6 | 3.2 | 0.00 | 0.00 | 0.00 | 40 | 1021.8 |
| 20260906035459 | 23 | 66 | 1.6 | 4.8 | 0.00 | 0.00 | 0.00 | 40 | 1021.7 |
| 20260906035425 | 23 | 66 | 1.6 | 4.8 | 0.00 | 0.00 | 0.00 | 40 | 1021.7 |
| 20260906035400 | 23 | 66 | 1.6 | 4.8 | 0.00 | 0.00 | 0.00 | 40 | 1021.7 |
| 20260906035300 | 23 | 66 | 1.6 | 4.8 | 0.00 | 0.00 | 0.00 | 40 | 1021.7 |
| 20260906035159 | 23 | 66 | 1.6 | 6.4 | 0.00 | 0.00 | 0.00 | 40 | 1021.7 |
| 20260906035055 | 23 | 66 | 3.2 | 9.7 | 0.00 | 0.00 | 0.00 | 40 | 1021.7 |
| 20260906034955 | 23 | 66 | 3.2 | 9.7 | 0.00 | 0.00 | 0.00 | 40 | 1021.6 |
| 20260906034924 | 23 | 66 | 3.2 | 9.7 | 0.00 | 0.00 | 0.00 | 40 | 1021.6 |
| 20260906034855 | 23 | 66 | 3.2 | 9.7 | 0.00 | 0.00 | 0.00 | 40 | 1021.6 |
| 20260906034802 | 23 | 66 | 4.8 | 9.7 | 0.00 | 0.00 | 0.00 | 40 | 1021.6 |
| 20260906034555 | 23 | 66 | 4.8 | 9.7 | 0.00 | 0.00 | 0.00 | 40 | 1021.6 |
| 20260906034455 | 23 | 66 | 4.8 | 11.3 | 0.00 | 0.00 | 0.00 | 40 | 1021.6 |
| 20260906034424 | 23 | 66 | 6.4 | 11.3 | 0.00 | 0.00 | 0.00 | 40 | 1021.6 |
| 20260906034355 | 23 | 66 | 6.4 | 11.3 | 0.00 | 0.00 | 0.00 | 39 | 1021.6 |
| 20260906034255 | 23 | 66 | 6.4 | 11.3 | 0.00 | 0.00 | 0.00 | 39 | 1021.6 |
| 20260906034201 | 23 | 65 | 6.4 | 12.9 | 0.00 | 0.00 | 0.00 | 40 | 1021.5 |
| 20260906033955 | 23 | 76 | 6.4 | 12.9 | 0.00 | 0.00 | 0.00 | 40 | 1021.5 |
| 20260906033924 | 23 | 71 | 8.0 | 12.9 | 0.00 | 0.00 | 0.00 | 40 | 1021.3 |
| 20260906033856 | 23 | 55 | 8.0 | 16.1 | 0.00 | 0.00 | 0.00 | 41 | 1021.3 |
| 20260906033755 | 23 | 56 | 8.0 | 16.1 | 0.00 | 0.00 | 0.00 | 40 | 1021.5 |
| 20260906033655 | 23 | 56 | 8.0 | 16.1 | 0.00 | 0.00 | 0.00 | 41 | 1021.5 |
| 20260906033601 | 23 | 33 | 8.0 | 16.1 | 0.00 | 0.00 | 0.00 | 40 | 1021.5 |
| 20260906033425 | 23 | 66 | 6.4 | 16.1 | 0.00 | 0.00 | 0.00 | 40 | 1021.3 |
| 20260906033356 | 23 | 42 | 6.4 | 16.1 | 0.00 | 0.00 | 0.00 | 40 | 1021.3 |
| 20260906033255 | 23 | 53 | 6.4 | 16.1 | 0.00 | 0.00 | 0.00 | 39 | 1021.3 |
| 20260906033152 | 23 | 76 | 6.4 | 16.1 | 0.00 | 0.00 | 0.00 | 38 | 1021.5 |
| 20260906033051 | 23 | 88 | 4.8 | 16.1 | 0.00 | 0.00 | 0.00 | 38 | 1021.5 |
| 20260906032951 | 23 | 65 | 4.8 | 16.1 | 0.00 | 0.00 | 0.00 | 38 | 1021.5 |
| 20260906032925 | 23 | 59 | 3.2 | 14.5 | 0.00 | 0.00 | 0.00 | 37 | 1021.3 |
| 20260906032858 | 23 | 49 | 3.2 | 12.9 | 0.00 | 0.00 | 0.00 | 37 | 1021.3 |
| 20260906032651 | 23 | 49 | 3.2 | 9.7 | 0.00 | 0.00 | 0.00 | 37 | 1021.3 |
| 20260906032551 | 23 | 63 | 1.6 | 6.4 | 0.00 | 0.00 | 0.00 | 37 | 1021.3 |
| 20260906032450 | 23 | 122 | 1.6 | 6.4 | 0.00 | 0.00 | 0.00 | 36 | 1021.2 |
| 20260906032421 | 23 | 122 | 1.6 | 6.4 | 0.00 | 0.00 | 0.00 | 36 | 1021.1 |
| 20260906032351 | 23 | 122 | 1.6 | 6.4 | 0.00 | 0.00 | 0.00 | 36 | 1021.1 |
| 20260906032251 | 23 | 159 | 1.6 | 6.4 | 0.00 | 0.00 | 0.00 | 36 | 1021.1 |
| 20260906032151 | 23 | 159 | 1.6 | 6.4 | 0.00 | 0.00 | 0.00 | 36 | 1021.1 |
| 20260906032050 | 23 | 175 | 1.6 | 6.4 | 0.00 | 0.00 | 0.00 | 36 | 1021.1 |
| 20260906031921 | 23 | 207 | 1.6 | 3.2 | 0.00 | 0.00 | 0.00 | 36 | 1021.1 |
| 20260906031851 | 23 | 207 | 1.6 | 3.2 | 0.00 | 0.00 | 0.00 | 36 | 1021.1 |
| 20260906031758 | 23 | 207 | 1.6 | 3.2 | 0.00 | 0.00 | 0.00 | 36 | 1021.1 |
| 20260906031552 | 23 | 200 | 1.6 | 4.8 | 0.00 | 0.00 | 0.00 | 35 | 1021.1 |
| 20260906031452 | 23 | 200 | 1.6 | 6.4 | 0.00 | 0.00 | 0.00 | 35 | 1021.1 |
| 20260906031420 | 23 | 200 | 1.6 | 6.4 | 0.00 | 0.00 | 0.00 | 35 | 1021.1 |
| 20260906031354 | 23 | 200 | 1.6 | 6.4 | 0.00 | 0.00 | 0.00 | 35 | 1021.1 |
| 20260906031147 | 23 | 200 | 3.2 | 6.4 | 0.00 | 0.00 | 0.00 | 35 | 1021.1 |
| 20260906031047 | 23 | 200 | 3.2 | 6.4 | 0.00 | 0.00 | 0.00 | 34 | 1021.1 |
| 20260906030921 | 23 | 200 | 3.2 | 6.4 | 0.00 | 0.00 | 0.00 | 34 | 1021.1 |
| 20260906030848 | 23 | 200 | 3.2 | 8.0 | 0.00 | 0.00 | 0.00 | 34 | 1021.1 |
| 20260906030747 | 23 | 200 | 4.8 | 9.7 | 0.00 | 0.00 | 0.00 | 34 | 1021.1 |
| 20260906030647 | 23 | 200 | 4.8 | 9.7 | 0.00 | 0.00 | 0.00 | 34 | 1021.1 |
| 20260906030553 | 24 | 200 | 4.8 | 9.7 | 0.00 | 0.00 | 0.00 | 34 | 1021.1 |
| 20260906030421 | 24 | 196 | 4.8 | 9.7 | 0.00 | 0.00 | 0.00 | 34 | 1021.0 |
| 20260906030347 | 24 | 196 | 4.8 | 9.7 | 0.00 | 0.00 | 0.00 | 34 | 1021.0 |
| 20260906030247 | 24 | 192 | 3.2 | 9.7 | 0.00 | 0.00 | 0.00 | 34 | 1020.9 |
| 20260906030147 | 24 | 183 | 3.2 | 9.7 | 0.00 | 0.00 | 0.00 | 33 | 1021.0 |
| 20260906030054 | 24 | 183 | 3.2 | 9.7 | 0.00 | 0.00 | 0.00 | 33 | 1021.0 |
| 20260906025921 | 24 | 172 | 3.2 | 9.7 | 0.00 | 0.00 | 0.00 | 33 | 1020.9 |
| 20260906025848 | 24 | 178 | 3.2 | 11.3 | 0.00 | 0.00 | 0.00 | 33 | 1020.9 |
| 20260906025747 | 24 | 177 | 3.2 | 11.3 | 0.00 | 0.00 | 0.00 | 33 | 1020.9 |
| 20260906025647 | 25 | 167 | 3.2 | 11.3 | 0.00 | 0.00 | 0.00 | 33 | 1020.9 |
| 20260906025554 | 25 | 165 | 3.2 | 11.3 | 0.00 | 0.00 | 0.00 | 33 | 1020.7 |
| 20260906025421 | 25 | 136 | 3.2 | 11.3 | 0.00 | 0.00 | 0.00 | 33 | 1020.7 |
| 20260906025343 | 25 | 136 | 3.2 | 11.3 | 0.00 | 0.00 | 0.00 | 33 | 1020.7 |
| 20260906025243 | 25 | 136 | 3.2 | 11.3 | 0.00 | 0.00 | 0.00 | 33 | 1020.7 |
| 20260906025207 | 25 | 136 | 4.8 | 12.9 | 0.00 | 0.00 | 0.00 | 33 | 1020.7 |
| 20260906025200 | 25 | 136 | 4.8 | 12.9 | 0.00 | 0.00 | 0.00 | 33 | 1020.7 |
| 20260906024743 | 25 | 180 | 3.2 | 12.9 | 0.00 | 0.00 | 0.00 | 33 | 1020.7 |
| 20260906024643 | 25 | 180 | 4.8 | 12.9 | 0.00 | 0.00 | 0.00 | 33 | 1020.6 |
| 20260906024543 | 25 | 233 | 4.8 | 12.9 | 0.00 | 0.00 | 0.00 | 33 | 1020.6 |
| 20260906024443 | 25 | 222 | 4.8 | 12.9 | 0.00 | 0.00 | 0.00 | 33 | 1020.6 |
| 20260906024421 | 25 | 221 | 4.8 | 12.9 | 0.00 | 0.00 | 0.00 | 33 | 1020.5 |
| 20260906024343 | 25 | 272 | 4.8 | 12.9 | 0.00 | 0.00 | 0.00 | 33 | 1020.5 |
| 20260906024242 | 25 | 260 | 4.8 | 12.9 | 0.00 | 0.00 | 0.00 | 33 | 1020.5 |
| 20260906024143 | 25 | 286 | 4.8 | 12.9 | 0.00 | 0.00 | 0.00 | 32 | 1020.5 |
| 20260906024043 | 25 | 333 | 4.8 | 12.9 | 0.00 | 0.00 | 0.00 | 33 | 1020.5 |
| 20260906023942 | 26 | 240 | 6.4 | 12.9 | 0.00 | 0.00 | 0.00 | 33 | 1020.5 |
| 20260906023921 | 26 | 240 | 6.4 | 12.9 | 0.00 | 0.00 | 0.00 | 33 | 1020.4 |
| 20260906023842 | 26 | 251 | 6.4 | 12.9 | 0.00 | 0.00 | 0.00 | 32 | 1020.4 |
| 20260906023743 | 26 | 304 | 6.4 | 12.9 | 0.00 | 0.00 | 0.00 | 32 | 1020.4 |
| 20260906023643 | 26 | 305 | 6.4 | 12.9 | 0.00 | 0.00 | 0.00 | 32 | 1020.3 |
| 20260906023544 | 26 | 269 | 6.4 | 14.5 | 0.00 | 0.00 | 0.00 | 31 | 1020.3 |
| 20260906023439 | 26 | 310 | 6.4 | 14.5 | 0.00 | 0.00 | 0.00 | 31 | 1020.3 |
| 20260906023421 | 26 | 319 | 6.4 | 14.5 | 0.00 | 0.00 | 0.00 | 31 | 1020.3 |
| 20260906023352 | 26 | 318 | 6.4 | 14.5 | 0.00 | 0.00 | 0.00 | 31 | 1020.3 |
| 20260906023039 | 26 | 298 | 6.4 | 14.5 | 0.00 | 0.00 | 0.00 | 31 | 1020.3 |
| 20260906022958 | 26 | 319 | 6.4 | 16.1 | 0.00 | 0.00 | 0.00 | 31 | 1020.3 |
| 20260906022950 | 26 | 289 | 6.4 | 16.1 | 0.00 | 0.00 | 0.00 | 31 | 1020.3 |
| 20260906022639 | 26 | 256 | 6.4 | 16.1 | 0.00 | 0.00 | 0.00 | 30 | 1020.3 |
| 20260906022539 | 26 | 303 | 6.4 | 16.1 | 0.00 | 0.00 | 0.00 | 30 | 1020.3 |
| 20260906022437 | 26 | 304 | 8.0 | 16.1 | 0.00 | 0.00 | 0.00 | 30 | 1020.3 |
| 20260906022421 | 26 | 287 | 8.0 | 16.1 | 0.00 | 0.00 | 0.00 | 30 | 1020.3 |
| 20260906022336 | 26 | 288 | 8.0 | 16.1 | 0.00 | 0.00 | 0.00 | 30 | 1020.3 |
| 20260906022241 | 26 | 279 | 8.0 | 16.1 | 0.00 | 0.00 | 0.00 | 30 | 1020.2 |
| 20260906022033 | 26 | 317 | 9.7 | 19.3 | 0.00 | 0.00 | 0.00 | 29 | 1020.3 |
| 20260906021931 | 26 | 306 | 9.7 | 19.3 | 0.00 | 0.00 | 0.00 | 30 | 1020.3 |
| 20260906021918 | 26 | 322 | 9.7 | 19.3 | 0.00 | 0.00 | 0.00 | 30 | 1020.3 |
| 20260906021832 | 26 | 294 | 9.7 | 19.3 | 0.00 | 0.00 | 0.00 | 29 | 1020.3 |
| 20260906021629 | 27 | 275 | 11.3 | 19.3 | 0.00 | 0.00 | 0.00 | 29 | 1020.2 |
| 20260906021436 | 27 | 321 | 11.3 | 19.3 | 0.00 | 0.00 | 0.00 | 29 | 1020.2 |
| 20260906021429 | 27 | 319 | 11.3 | 19.3 | 0.00 | 0.00 | 0.00 | 29 | 1020.2 |
| 20260906021117 | 27 | 306 | 12.9 | 19.3 | 0.00 | 0.00 | 0.00 | 29 | 1020.2 |
| 20260906021017 | 27 | 331 | 14.5 | 22.5 | 0.00 | 0.00 | 0.00 | 28 | 1020.3 |
| 20260906020926 | 27 | 283 | 14.5 | 22.5 | 0.00 | 0.00 | 0.00 | 28 | 1020.2 |
| 20260906020922 | 27 | 297 | 14.5 | 22.5 | 0.00 | 0.00 | 0.00 | 28 | 1020.2 |
| 20260906020711 | 27 | 296 | 12.9 | 22.5 | 0.00 | 0.00 | 0.00 | 28 | 1020.2 |
| 20260906020609 | 27 | 300 | 12.9 | 22.5 | 0.00 | 0.00 | 0.00 | 28 | 1020.2 |
| 20260906020509 | 27 | 329 | 12.9 | 22.5 | 0.00 | 0.00 | 0.00 | 28 | 1020.3 |
| 20260906020416 | 27 | 292 | 12.9 | 22.5 | 0.00 | 0.00 | 0.00 | 28 | 1020.3 |
| 20260906020409 | 27 | 317 | 12.9 | 22.5 | 0.00 | 0.00 | 0.00 | 28 | 1020.3 |
| 20260906020308 | 27 | 317 | 12.9 | 22.5 | 0.00 | 0.00 | 0.00 | 28 | 1020.3 |
| 20260906020210 | 27 | 301 | 12.9 | 22.5 | 0.00 | 0.00 | 0.00 | 28 | 1020.3 |
| 20260906020021 | 27 | 294 | 11.3 | 22.5 | 0.00 | 0.00 | 0.00 | 28 | 1020.3 |
| 20260906015908 | 27 | 270 | 11.3 | 22.5 | 0.00 | 0.00 | 0.00 | 29 | 1020.3 |
| 20260906015655 | 27 | 286 | 12.9 | 24.1 | 0.00 | 0.00 | 0.00 | 29 | 1020.3 |
| 20260906015555 | 27 | 275 | 14.5 | 24.1 | 0.00 | 0.00 | 0.00 | 29 | 1020.2 |
| 20260906015454 | 27 | 313 | 12.9 | 24.1 | 0.00 | 0.00 | 0.00 | 29 | 1020.2 |
| 20260906015415 | 27 | 301 | 14.5 | 24.1 | 0.00 | 0.00 | 0.00 | 29 | 1020.2 |
| 20260906015356 | 27 | 289 | 14.5 | 24.1 | 0.00 | 0.00 | 0.00 | 28 | 1020.2 |
| 20260906015254 | 27 | 315 | 12.9 | 24.1 | 0.00 | 0.00 | 0.00 | 28 | 1020.2 |
| 20260906015149 | 27 | 303 | 12.9 | 24.1 | 0.00 | 0.00 | 0.00 | 28 | 1020.2 |
| 20260906015049 | 27 | 273 | 12.9 | 24.1 | 0.00 | 0.00 | 0.00 | 28 | 1020.3 |
| 20260906014947 | 27 | 302 | 12.9 | 24.1 | 0.00 | 0.00 | 0.00 | 29 | 1020.3 |
| 20260906014912 | 27 | 333 | 12.9 | 24.1 | 0.00 | 0.00 | 0.00 | 29 | 1020.3 |
| 20260906014847 | 27 | 304 | 12.9 | 24.1 | 0.00 | 0.00 | 0.00 | 29 | 1020.3 |
| 20260906014746 | 27 | 315 | 12.9 | 24.1 | 0.00 | 0.00 | 0.00 | 29 | 1020.2 |
| 20260906014640 | 27 | 288 | 11.3 | 22.5 | 0.00 | 0.00 | 0.00 | 29 | 1020.2 |
| 20260906014541 | 27 | 317 | 11.3 | 22.5 | 0.00 | 0.00 | 0.00 | 29 | 1020.2 |
| 20260906014441 | 27 | 275 | 11.3 | 22.5 | 0.00 | 0.00 | 0.00 | 30 | 1020.0 |
| 20260906014412 | 27 | 277 | 11.3 | 20.9 | 0.00 | 0.00 | 0.00 | 30 | 1020.0 |
| 20260906014340 | 27 | 293 | 11.3 | 20.9 | 0.00 | 0.00 | 0.00 | 30 | 1020.0 |
| 20260906014240 | 27 | 277 | 9.7 | 20.9 | 0.00 | 0.00 | 0.00 | 30 | 1020.0 |
| 20260906014133 | 27 | 301 | 9.7 | 20.9 | 0.00 | 0.00 | 0.00 | 30 | 1020.0 |
| 20260906014032 | 27 | 316 | 9.7 | 20.9 | 0.00 | 0.00 | 0.00 | 29 | 1020.0 |
| 20260906013933 | 27 | 311 | 9.7 | 19.3 | 0.00 | 0.00 | 0.00 | 30 | 1020.0 |
| 20260906013912 | 27 | 300 | 9.7 | 19.3 | 0.00 | 0.00 | 0.00 | 30 | 1020.0 |
| 20260906013833 | 27 | 306 | 9.7 | 19.3 | 0.00 | 0.00 | 0.00 | 30 | 1020.0 |
| 20260906013733 | 27 | 279 | 9.7 | 19.3 | 0.00 | 0.00 | 0.00 | 30 | 1020.0 |
| 20260906013627 | 27 | 304 | 9.7 | 19.3 | 0.00 | 0.00 | 0.00 | 30 | 1020.0 |
| 20260906013527 | 27 | 284 | 9.7 | 19.3 | 0.00 | 0.00 | 0.00 | 30 | 1019.9 |
| 20260906013427 | 27 | 280 | 8.0 | 19.3 | 0.00 | 0.00 | 0.00 | 30 | 1019.9 |
| 20260906013405 | 27 | 322 | 8.0 | 19.3 | 0.00 | 0.00 | 0.00 | 30 | 1019.9 |
| 20260906013334 | 27 | 321 | 8.0 | 19.3 | 0.00 | 0.00 | 0.00 | 30 | 1020.0 |
| 20260906013127 | 27 | 306 | 8.0 | 19.3 | 0.00 | 0.00 | 0.00 | 30 | 1020.0 |
| 20260906013043 | 27 | 297 | 8.0 | 17.7 | 0.00 | 0.00 | 0.00 | 31 | 1019.9 |
| 20260906013036 | 27 | 298 | 8.0 | 17.7 | 0.00 | 0.00 | 0.00 | 30 | 1019.9 |
| 20260906012725 | 27 | 286 | 6.4 | 17.7 | 0.00 | 0.00 | 0.00 | 30 | 1019.9 |
| 20260906012624 | 27 | 333 | 8.0 | 14.5 | 0.00 | 0.00 | 0.00 | 30 | 1020.0 |
| 20260906012525 | 27 | 322 | 8.0 | 16.1 | 0.00 | 0.00 | 0.00 | 30 | 1019.9 |
| 20260906012434 | 27 | 272 | 9.7 | 17.7 | 0.00 | 0.00 | 0.00 | 30 | 1019.9 |
| 20260906012427 | 27 | 279 | 9.7 | 19.3 | 0.00 | 0.00 | 0.00 | 29 | 1019.9 |
| 20260906012222 | 27 | 308 | 11.3 | 20.9 | 0.00 | 0.00 | 0.00 | 29 | 1020.0 |
| 20260906012147 | 27 | 306 | 11.3 | 20.9 | 0.00 | 0.00 | 0.00 | 29 | 1020.0 |
| 20260906012034 | 27 | 281 | 12.9 | 20.9 | 0.00 | 0.00 | 0.00 | 29 | 1020.0 |
| 20260906011722 | 27 | 313 | 14.5 | 20.9 | 0.00 | 0.00 | 0.00 | 29 | 1020.0 |
| 20260906011622 | 27 | 298 | 14.5 | 20.9 | 0.00 | 0.00 | 0.00 | 29 | 1020.0 |
| 20260906011521 | 27 | 290 | 14.5 | 20.9 | 0.00 | 0.00 | 0.00 | 29 | 1020.0 |
| 20260906011416 | 27 | 304 | 16.1 | 20.9 | 0.00 | 0.00 | 0.00 | 28 | 1020.0 |
| 20260906011340 | 27 | 317 | 16.1 | 22.5 | 0.00 | 0.00 | 0.00 | 28 | 1020.0 |
| 20260906011316 | 27 | 304 | 16.1 | 22.5 | 0.00 | 0.00 | 0.00 | 28 | 1020.0 |
| 20260906011216 | 27 | 282 | 16.1 | 22.5 | 0.00 | 0.00 | 0.00 | 28 | 1020.0 |
| 20260906011116 | 27 | 310 | 14.5 | 22.5 | 0.00 | 0.00 | 0.00 | 28 | 1020.0 |
| 20260906011017 | 27 | 315 | 16.1 | 22.5 | 0.00 | 0.00 | 0.00 | 28 | 1020.0 |
| 20260906010921 | 27 | 302 | 14.5 | 22.5 | 0.00 | 0.00 | 0.00 | 28 | 1020.0 |
| 20260906010914 | 27 | 331 | 14.5 | 22.5 | 0.00 | 0.00 | 0.00 | 28 | 1020.0 |
| 20260906010710 | 27 | 315 | 14.5 | 22.5 | 0.00 | 0.00 | 0.00 | 28 | 1019.9 |
| 20260906010629 | 28 | 307 | 12.9 | 22.5 | 0.00 | 0.00 | 0.00 | 28 | 1020.0 |
| 20260906010622 | 28 | 317 | 12.9 | 22.5 | 0.00 | 0.00 | 0.00 | 28 | 1020.0 |
| 20260906010205 | 28 | 334 | 12.9 | 22.5 | 0.00 | 0.00 | 0.00 | 28 | 1020.0 |
| 20260906010105 | 28 | 317 | 12.9 | 22.5 | 0.00 | 0.00 | 0.00 | 28 | 1020.0 |
| 20260906010004 | 28 | 294 | 14.5 | 22.5 | 0.00 | 0.00 | 0.00 | 28 | 1020.2 |
| 20260906005900 | 28 | 306 | 14.5 | 27.4 | 0.00 | 0.00 | 0.00 | 28 | 1020.0 |
| 20260906005821 | 28 | 287 | 14.5 | 27.4 | 0.00 | 0.00 | 0.00 | 28 | 1020.0 |
| 20260906005800 | 28 | 313 | 14.5 | 27.4 | 0.00 | 0.00 | 0.00 | 28 | 1020.0 |
| 20260906005700 | 28 | 317 | 16.1 | 27.4 | 0.00 | 0.00 | 0.00 | 28 | 1020.0 |
| 20260906005600 | 28 | 281 | 16.1 | 27.4 | 0.00 | 0.00 | 0.00 | 28 | 1020.0 |
| 20260906005458 | 28 | 288 | 17.7 | 27.4 | 0.00 | 0.00 | 0.00 | 27 | 1020.0 |
| 20260906005353 | 28 | 309 | 17.7 | 27.4 | 0.00 | 0.00 | 0.00 | 27 | 1020.2 |
| 20260906005316 | 28 | 320 | 16.1 | 27.4 | 0.00 | 0.00 | 0.00 | 27 | 1020.2 |
| 20260906005252 | 28 | 306 | 16.1 | 27.4 | 0.00 | 0.00 | 0.00 | 27 | 1020.2 |
| 20260906005152 | 28 | 300 | 16.1 | 27.4 | 0.00 | 0.00 | 0.00 | 27 | 1020.0 |
| 20260906005052 | 28 | 301 | 16.1 | 27.4 | 0.00 | 0.00 | 0.00 | 27 | 1020.0 |
| 20260906004951 | 28 | 313 | 16.1 | 27.4 | 0.00 | 0.00 | 0.00 | 27 | 1020.0 |
| 20260906004846 | 28 | 298 | 16.1 | 25.7 | 0.00 | 0.00 | 0.00 | 27 | 1020.2 |
| 20260906004810 | 28 | 295 | 16.1 | 25.7 | 0.00 | 0.00 | 0.00 | 27 | 1020.0 |
| 20260906004746 | 28 | 297 | 16.1 | 25.7 | 0.00 | 0.00 | 0.00 | 27 | 1020.0 |
| 20260906004646 | 28 | 297 | 16.1 | 25.7 | 0.00 | 0.00 | 0.00 | 27 | 1020.0 |
| 20260906004546 | 28 | 309 | 16.1 | 25.7 | 0.00 | 0.00 | 0.00 | 27 | 1020.0 |
| 20260906004445 | 28 | 299 | 16.1 | 27.4 | 0.00 | 0.00 | 0.00 | 27 | 1020.0 |
| 20260906004340 | 28 | 323 | 16.1 | 27.4 | 0.00 | 0.00 | 0.00 | 27 | 1019.9 |
| 20260906004304 | 28 | 307 | 16.1 | 27.4 | 0.00 | 0.00 | 0.00 | 27 | 1020.0 |
| 20260906004240 | 28 | 306 | 16.1 | 27.4 | 0.00 | 0.00 | 0.00 | 27 | 1020.0 |
| 20260906004141 | 28 | 317 | 16.1 | 27.4 | 0.00 | 0.00 | 0.00 | 27 | 1020.0 |
| 20260906004040 | 28 | 306 | 16.1 | 27.4 | 0.00 | 0.00 | 0.00 | 27 | 1020.0 |
| 20260906003940 | 28 | 296 | 12.9 | 27.4 | 0.00 | 0.00 | 0.00 | 26 | 1020.0 |
| 20260906003834 | 28 | 298 | 12.9 | 27.4 | 0.00 | 0.00 | 0.00 | 26 | 1020.0 |
| 20260906003758 | 28 | 289 | 12.9 | 27.4 | 0.00 | 0.00 | 0.00 | 26 | 1020.0 |
| 20260906003734 | 28 | 321 | 11.3 | 27.4 | 0.00 | 0.00 | 0.00 | 26 | 1020.0 |
| 20260906003634 | 28 | 333 | 11.3 | 27.4 | 0.00 | 0.00 | 0.00 | 26 | 1020.0 |
| 20260906003534 | 28 | 311 | 9.7 | 27.4 | 0.00 | 0.00 | 0.00 | 25 | 1020.0 |
| 20260906003434 | 28 | 336 | 9.7 | 20.9 | 0.00 | 0.00 | 0.00 | 25 | 1020.0 |
| 20260906003358 | 28 | 334 | 8.0 | 20.9 | 0.00 | 0.00 | 0.00 | 26 | 1020.0 |
| 20260906003230 | 28 | 306 | 6.4 | 17.7 | 0.00 | 0.00 | 0.00 | 25 | 1020.0 |
| 20260906003130 | 28 | 316 | 6.4 | 17.7 | 0.00 | 0.00 | 0.00 | 25 | 1020.0 |
| 20260906003029 | 28 | 343 | 6.4 | 16.1 | 0.00 | 0.00 | 0.00 | 26 | 1020.0 |
| 20260906002928 | 28 | 5 | 6.4 | 16.1 | 0.00 | 0.00 | 0.00 | 25 | 1020.0 |
| 20260906002823 | 28 | 341 | 6.4 | 16.1 | 0.00 | 0.00 | 0.00 | 26 | 1020.0 |
| 20260906002746 | 28 | 355 | 6.4 | 14.5 | 0.00 | 0.00 | 0.00 | 26 | 1020.0 |
| 20260906002722 | 28 | 14 | 6.4 | 14.5 | 0.00 | 0.00 | 0.00 | 26 | 1020.0 |
| 20260906002622 | 28 | 27 | 6.4 | 14.5 | 0.00 | 0.00 | 0.00 | 26 | 1020.2 |
| 20260906002522 | 28 | 5 | 6.4 | 14.5 | 0.00 | 0.00 | 0.00 | 26 | 1020.0 |
| 20260906002422 | 28 | 336 | 6.4 | 14.5 | 0.00 | 0.00 | 0.00 | 26 | 1020.0 |
| 20260906002318 | 28 | 311 | 6.4 | 14.5 | 0.00 | 0.00 | 0.00 | 26 | 1020.0 |
| 20260906002218 | 28 | 334 | 6.4 | 14.5 | 0.00 | 0.00 | 0.00 | 26 | 1020.0 |
| 20260906002118 | 28 | 320 | 6.4 | 16.1 | 0.00 | 0.00 | 0.00 | 26 | 1020.0 |
| 20260906002019 | 28 | 355 | 6.4 | 16.1 | 0.00 | 0.00 | 0.00 | 26 | 1020.0 |
| 20260906001918 | 28 | 342 | 8.0 | 16.1 | 0.00 | 0.00 | 0.00 | 26 | 1020.0 |
| 20260906001733 | 28 | 338 | 8.0 | 16.1 | 0.00 | 0.00 | 0.00 | 26 | 1020.0 |
| 20260906001711 | 28 | 355 | 8.0 | 16.1 | 0.00 | 0.00 | 0.00 | 26 | 1020.0 |
| 20260906001618 | 28 | 5 | 8.0 | 19.3 | 0.00 | 0.00 | 0.00 | 26 | 1020.0 |
| 20260906001410 | 28 | 338 | 9.7 | 19.3 | 0.00 | 0.00 | 0.00 | 26 | 1020.0 |
| 20260906001304 | 29 | 9 | 9.7 | 19.3 | 0.00 | 0.00 | 0.00 | 26 | 1019.9 |
| 20260906001227 | 29 | 334 | 9.7 | 19.3 | 0.00 | 0.00 | 0.00 | 26 | 1020.0 |
| 20260906001204 | 29 | 347 | 9.7 | 19.3 | 0.00 | 0.00 | 0.00 | 26 | 1020.0 |
| 20260906001104 | 29 | 355 | 9.7 | 19.3 | 0.00 | 0.00 | 0.00 | 25 | 1020.0 |
| 20260906001011 | 29 | 355 | 9.7 | 19.3 | 0.00 | 0.00 | 0.00 | 26 | 1020.0 |
| 20260906000801 | 29 | 348 | 9.7 | 19.3 | 0.00 | 0.00 | 0.00 | 26 | 1020.0 |
| 20260906000721 | 29 | 344 | 9.7 | 19.3 | 0.00 | 0.00 | 0.00 | 26 | 1019.9 |
| 20260906000700 | 29 | 336 | 9.7 | 19.3 | 0.00 | 0.00 | 0.00 | 26 | 1019.9 |
| 20260906000558 | 29 | 347 | 8.0 | 19.3 | 0.00 | 0.00 | 0.00 | 26 | 1019.9 |
| 20260906000458 | 29 | 5 | 8.0 | 19.3 | 0.00 | 0.00 | 0.00 | 25 | 1020.0 |
| 20260906000358 | 29 | 340 | 8.0 | 19.3 | 0.00 | 0.00 | 0.00 | 25 | 1020.0 |
| 20260906000322 | 29 | 340 | 8.0 | 19.3 | 0.00 | 0.00 | 0.00 | 25 | 1019.9 |
| 20260906000152 | 30 | 323 | 6.4 | 19.3 | 0.00 | 0.00 | 0.00 | 26 | 1019.9 |
| 20260906000059 | 30 | 350 | 6.4 | 14.5 | 0.00 | 0.00 | 0.00 | 26 | 1020.0 |
| 20260905235907 | 30 | 355 | 6.4 | 14.5 | 0.00 | 0.00 | 0.00 | 25 | 1019.9 |
| 20260905235900 | 30 | 345 | 4.8 | 12.9 | 0.00 | 0.00 | 0.00 | 26 | 1019.9 |
| 20260905235554 | 30 | 343 | 4.8 | 12.9 | 0.00 | 0.00 | 0.00 | 26 | 1019.9 |
| 20260905235345 | 30 | 28 | 4.8 | 8.0 | 0.00 | 0.00 | 0.00 | 25 | 1019.9 |
| 20260905235311 | 30 | 13 | 3.2 | 8.0 | 0.00 | 0.00 | 0.00 | 24 | 1019.9 |
| 20260905235140 | 30 | 36 | 3.2 | 8.0 | 0.00 | 0.00 | 0.00 | 26 | 1019.9 |
| 20260905235041 | 30 | 20 | 3.2 | 8.0 | 0.00 | 0.00 | 0.00 | 26 | 1019.9 |
| 20260905234940 | 30 | 5 | 3.2 | 8.0 | 0.00 | 0.00 | 0.00 | 26 | 1019.9 |
| 20260905234841 | 30 | 5 | 3.2 | 8.0 | 0.00 | 0.00 | 0.00 | 26 | 1019.9 |
| 20260905234657 | 30 | 9 | 3.2 | 8.0 | 0.00 | 0.00 | 0.00 | 25 | 1019.9 |
| 20260905234634 | 30 | 9 | 3.2 | 8.0 | 0.00 | 0.00 | 0.00 | 26 | 1019.9 |
| 20260905234541 | 30 | 344 | 3.2 | 8.0 | 0.00 | 0.00 | 0.00 | 26 | 1019.9 |
| 20260905234333 | 30 | 34 | 3.2 | 8.0 | 0.00 | 0.00 | 0.00 | 26 | 1020.0 |
| 20260905234232 | 30 | 32 | 3.2 | 8.0 | 0.00 | 0.00 | 0.00 | 26 | 1020.0 |
| 20260905234151 | 30 | 46 | 3.2 | 8.0 | 0.00 | 0.00 | 0.00 | 25 | 1020.0 |
| 20260905234132 | 30 | 46 | 3.2 | 8.0 | 0.00 | 0.00 | 0.00 | 25 | 1019.9 |
| 20260905234030 | 30 | 9 | 3.2 | 9.7 | 0.00 | 0.00 | 0.00 | 26 | 1020.0 |
| 20260905233930 | 30 | 9 | 4.8 | 9.7 | 0.00 | 0.00 | 0.00 | 26 | 1020.0 |
| 20260905233830 | 30 | 336 | 4.8 | 9.7 | 0.00 | 0.00 | 0.00 | 26 | 1020.0 |
| 20260905233728 | 30 | 30 | 4.8 | 9.7 | 0.00 | 0.00 | 0.00 | 25 | 1019.9 |
| 20260905233646 | 30 | 11 | 4.8 | 9.7 | 0.00 | 0.00 | 0.00 | 25 | 1019.9 |
| 20260905233626 | 30 | 32 | 4.8 | 9.7 | 0.00 | 0.00 | 0.00 | 24 | 1019.9 |
| 20260905233526 | 30 | 32 | 4.8 | 9.7 | 0.00 | 0.00 | 0.00 | 25 | 1019.9 |
| 20260905233429 | 30 | 32 | 4.8 | 9.7 | 0.00 | 0.00 | 0.00 | 24 | 1019.9 |
| 20260905233218 | 30 | 37 | 6.4 | 9.7 | 0.00 | 0.00 | 0.00 | 24 | 1019.9 |
| 20260905233123 | 30 | 38 | 6.4 | 9.7 | 0.00 | 0.00 | 0.00 | 24 | 1019.9 |
| 20260905232916 | 30 | 0 | 6.4 | 11.3 | 0.00 | 0.00 | 0.00 | 25 | 1019.9 |
| 20260905232815 | 31 | 28 | 6.4 | 11.3 | 0.00 | 0.00 | 0.00 | 24 | 1019.9 |
| 20260905232710 | 31 | 33 | 6.4 | 11.3 | 0.00 | 0.00 | 0.00 | 24 | 1019.8 |
| 20260905232634 | 31 | 32 | 4.8 | 11.3 | 0.00 | 0.00 | 0.00 | 24 | 1019.8 |
| 20260905232617 | 31 | 31 | 4.8 | 11.3 | 0.00 | 0.00 | 0.00 | 23 | 1019.8 |
| 20260905232416 | 31 | 48 | 4.8 | 11.3 | 0.00 | 0.00 | 0.00 | 24 | 1019.8 |
| 20260905232206 | 31 | 0 | 4.8 | 11.3 | 0.00 | 0.00 | 0.00 | 24 | 1019.8 |
| 20260905232128 | 31 | 355 | 4.8 | 11.3 | 0.00 | 0.00 | 0.00 | 24 | 1019.8 |
| 20260905232106 | 31 | 12 | 4.8 | 11.3 | 0.00 | 0.00 | 0.00 | 24 | 1019.8 |
| 20260905232006 | 31 | 10 | 4.8 | 11.3 | 0.00 | 0.00 | 0.00 | 24 | 1019.8 |
| 20260905231904 | 31 | 319 | 4.8 | 11.3 | 0.00 | 0.00 | 0.00 | 24 | 1019.8 |
| 20260905231803 | 31 | 343 | 4.8 | 9.7 | 0.00 | 0.00 | 0.00 | 23 | 1019.9 |
| 20260905231659 | 31 | 32 | 4.8 | 9.7 | 0.00 | 0.00 | 0.00 | 24 | 1019.8 |
| 20260905231622 | 31 | 327 | 4.8 | 9.7 | 0.00 | 0.00 | 0.00 | 24 | 1019.9 |
| 20260905231559 | 31 | 5 | 4.8 | 9.7 | 0.00 | 0.00 | 0.00 | 23 | 1019.9 |
| 20260905231459 | 31 | 351 | 4.8 | 9.7 | 0.00 | 0.00 | 0.00 | 22 | 1019.8 |
| 20260905231358 | 31 | 36 | 4.8 | 9.7 | 0.00 | 0.00 | 0.00 | 22 | 1019.8 |
| 20260905231259 | 31 | 49 | 3.2 | 9.7 | 0.00 | 0.00 | 0.00 | 23 | 1019.8 |
| 20260905231152 | 31 | 53 | 3.2 | 9.7 | 0.00 | 0.00 | 0.00 | 23 | 1019.8 |
| 20260905231116 | 31 | 80 | 3.2 | 9.7 | 0.00 | 0.00 | 0.00 | 22 | 1019.8 |
| 20260905231052 | 31 | 88 | 3.2 | 9.7 | 0.00 | 0.00 | 0.00 | 23 | 1019.8 |
| 20260905230959 | 31 | 61 | 3.2 | 9.7 | 0.00 | 0.00 | 0.00 | 23 | 1019.8 |
| 20260905230752 | 32 | 22 | 1.6 | 6.4 | 0.00 | 0.00 | 0.00 | 23 | 1019.8 |
| 20260905230650 | 32 | 320 | 1.6 | 6.4 | 0.00 | 0.00 | 0.00 | 23 | 1019.8 |
| 20260905230610 | 32 | 320 | 1.6 | 6.4 | 0.00 | 0.00 | 0.00 | 23 | 1019.8 |
| 20260905230550 | 32 | 320 | 1.6 | 6.4 | 0.00 | 0.00 | 0.00 | 23 | 1019.8 |
| 20260905230451 | 32 | 320 | 1.6 | 6.4 | 0.00 | 0.00 | 0.00 | 23 | 1019.8 |
| 20260905230400 | 32 | 69 | 3.2 | 12.9 | 0.00 | 0.00 | 0.00 | 23 | 1019.8 |
| 20260905230103 | 32 | 69 | 4.8 | 12.9 | 0.00 | 0.00 | 0.00 | 22 | 1019.8 |
| 20260905230044 | 32 | 69 | 4.8 | 12.9 | 0.00 | 0.00 | 0.00 | 22 | 1019.8 |
| 20260905225942 | 32 | 69 | 4.8 | 12.9 | 0.00 | 0.00 | 0.00 | 21 | 1019.8 |
| 20260905225846 | 32 | 46 | 6.4 | 17.7 | 0.00 | 0.00 | 0.00 | 22 | 1019.8 |
| 20260905225634 | 32 | 40 | 6.4 | 17.7 | 0.00 | 0.00 | 0.00 | 22 | 1019.7 |
| 20260905225558 | 32 | 9 | 6.4 | 17.7 | 0.00 | 0.00 | 0.00 | 22 | 1019.7 |
| 20260905225535 | 32 | 11 | 4.8 | 17.7 | 0.00 | 0.00 | 0.00 | 22 | 1019.7 |
| 20260905225434 | 32 | 40 | 4.8 | 17.7 | 0.00 | 0.00 | 0.00 | 22 | 1019.7 |
| 20260905225334 | 32 | 30 | 4.8 | 17.7 | 0.00 | 0.00 | 0.00 | 23 | 1019.7 |
| 20260905225233 | 32 | 57 | 4.8 | 17.7 | 0.00 | 0.00 | 0.00 | 22 | 1019.7 |
| 20260905225159 | 32 | 80 | 4.8 | 17.7 | 0.00 | 0.00 | 0.00 | 21 | 1019.7 |
| 20260905225028 | 32 | 148 | 3.2 | 17.7 | 0.00 | 0.00 | 0.00 | 21 | 1019.8 |
| 20260905224929 | 32 | 54 | 3.2 | 9.7 | 0.00 | 0.00 | 0.00 | 22 | 1019.7 |
| 20260905224829 | 32 | 61 | 3.2 | 9.7 | 0.00 | 0.00 | 0.00 | 22 | 1019.8 |
| 20260905224727 | 32 | 76 | 3.2 | 9.7 | 0.00 | 0.00 | 0.00 | 22 | 1019.7 |
| 20260905224624 | 32 | 81 | 3.2 | 9.7 | 0.00 | 0.00 | 0.00 | 21 | 1019.7 |
| 20260905224545 | 32 | 69 | 3.2 | 9.7 | 0.00 | 0.00 | 0.00 | 22 | 1019.7 |
| 20260905224524 | 32 | 68 | 3.2 | 9.7 | 0.00 | 0.00 | 0.00 | 22 | 1019.8 |
| 20260905224424 | 32 | 68 | 4.8 | 9.7 | 0.00 | 0.00 | 0.00 | 22 | 1019.8 |
| 20260905224331 | 32 | 69 | 4.8 | 9.7 | 0.00 | 0.00 | 0.00 | 22 | 1019.8 |
| 20260905224038 | 32 | 77 | 4.8 | 14.5 | 0.00 | 0.00 | 0.00 | 22 | 1019.7 |
| 20260905224017 | 32 | 84 | 4.8 | 14.5 | 0.00 | 0.00 | 0.00 | 22 | 1019.7 |
| 20260905223918 | 32 | 85 | 4.8 | 14.5 | 0.00 | 0.00 | 0.00 | 22 | 1019.7 |
| 20260905223816 | 32 | 85 | 4.8 | 14.5 | 0.00 | 0.00 | 0.00 | 22 | 1019.7 |
| 20260905223713 | 32 | 44 | 4.8 | 14.5 | 0.00 | 0.00 | 0.00 | 21 | 1019.8 |